Wetterdaten: Dienstag, 26.10.2021
Datum Zeit Temp. Aussen Temp. o. S. Temp +5cm Feuchte Auss Luftdruck Regen Sonnenschein Regendauer Solar Windben Empfang
26.10.2021 00:00 11,1 C 10,6 C 8,9 C 93 % 1019,0 hPa 0,0 l/m 0 min 0 min 0 W/m 12,9 km/h (3 Bft) 97,87 %
26.10.2021 00:02 11,1 C 10,6 C 8,9 C 93 % 1019,0 hPa 0,0 l/m 0 min 0 min 0 W/m 9,7 km/h (2 Bft) 95,12 %
26.10.2021 00:04 11,0 C 10,6 C 8,9 C 93 % 1019,0 hPa 0,0 l/m 0 min 0 min 0 W/m 16,1 km/h (3 Bft) 97,87 %
26.10.2021 00:08 11,0 C 10,6 C 8,9 C 93 % 1018,9 hPa 0,0 l/m 0 min 0 min 0 W/m 16,1 km/h (3 Bft) 97,85 %
26.10.2021 00:10 11,0 C 10,6 C 8,9 C 93 % 1019,0 hPa 0,0 l/m 0 min 0 min 0 W/m 12,9 km/h (3 Bft) 95,74 %
26.10.2021 00:12 11,0 C 10,6 C 8,9 C 93 % 1018,9 hPa 0,0 l/m 0 min 0 min 0 W/m 12,9 km/h (3 Bft) 95,74 %
26.10.2021 00:14 11,0 C 10,6 C 8,9 C 93 % 1019,0 hPa 0,0 l/m 0 min 0 min 0 W/m 9,7 km/h (2 Bft) 95,74 %
26.10.2021 00:16 11,1 C 10,6 C 8,9 C 93 % 1019,0 hPa 0,0 l/m 0 min 0 min 0 W/m 3,2 km/h (1 Bft) 97,87 %
26.10.2021 00:18 11,0 C 10,6 C 8,9 C 93 % 1019,0 hPa 0,0 l/m 0 min 0 min 0 W/m 6,4 km/h (2 Bft) 97,87 %
26.10.2021 00:20 11,0 C 10,6 C 8,9 C 93 % 1019,0 hPa 0,0 l/m 0 min 0 min 0 W/m 12,9 km/h (3 Bft) 97,83 %
26.10.2021 00:22 11,0 C 10,6 C 8,9 C 93 % 1019,0 hPa 0,0 l/m 0 min 0 min 0 W/m 12,9 km/h (3 Bft) 97,87 %
26.10.2021 00:24 11,0 C 10,6 C 8,9 C 93 % 1019,0 hPa 0,0 l/m 0 min 0 min 0 W/m 6,4 km/h (2 Bft) 100,00 %
26.10.2021 00:26 11,0 C 10,6 C 8,9 C 93 % 1018,9 hPa 0,0 l/m 0 min 0 min 0 W/m 12,9 km/h (3 Bft) 100,00 %
26.10.2021 00:28 11,0 C 10,6 C 8,9 C 93 % 1019,0 hPa 0,0 l/m 0 min 0 min 0 W/m 9,7 km/h (2 Bft) 97,87 %
26.10.2021 00:30 11,0 C 10,6 C 8,9 C 93 % 1018,9 hPa 0,0 l/m 0 min 0 min 0 W/m 9,7 km/h (2 Bft) 100,00 %
26.10.2021 00:32 11,0 C 10,6 C 8,9 C 93 % 1018,9 hPa 0,0 l/m 0 min 0 min 0 W/m 6,4 km/h (2 Bft) 100,00 %
26.10.2021 00:34 11,0 C 10,6 C 8,9 C 93 % 1018,9 hPa 0,0 l/m 0 min 0 min 0 W/m 6,4 km/h (2 Bft) 100,00 %
26.10.2021 00:36 11,0 C 10,6 C 8,9 C 93 % 1018,9 hPa 0,0 l/m 0 min 0 min 0 W/m 9,7 km/h (2 Bft) 100,00 %
26.10.2021 00:38 11,0 C 10,6 C 8,9 C 93 % 1018,9 hPa 0,0 l/m 0 min 0 min 0 W/m 6,4 km/h (2 Bft) 97,87 %
26.10.2021 00:40 11,0 C 10,6 C 8,9 C 93 % 1018,9 hPa 0,0 l/m 0 min 0 min 0 W/m 9,7 km/h (2 Bft) 100,00 %
26.10.2021 00:42 11,0 C 10,6 C 8,9 C 93 % 1018,9 hPa 0,0 l/m 0 min 0 min 0 W/m 6,4 km/h (2 Bft) 97,87 %
26.10.2021 00:44 11,0 C 10,6 C 9,5 C 93 % 1018,9 hPa 0,0 l/m 0 min 0 min 0 W/m 16,1 km/h (3 Bft) 95,65 %
26.10.2021 00:46 11,0 C 10,6 C 9,5 C 93 % 1018,9 hPa 0,0 l/m 0 min 0 min 0 W/m 3,2 km/h (1 Bft) 97,87 %
26.10.2021 00:48 11,0 C 10,6 C 9,5 C 93 % 1018,9 hPa 0,0 l/m 0 min 0 min 0 W/m 6,4 km/h (2 Bft) 97,87 %
26.10.2021 00:50 11,1 C 10,6 C 9,5 C 93 % 1018,9 hPa 0,0 l/m 0 min 0 min 0 W/m 6,4 km/h (2 Bft) 97,87 %
26.10.2021 00:52 11,0 C 10,6 C 9,5 C 93 % 1018,9 hPa 0,0 l/m 0 min 0 min 0 W/m 16,1 km/h (3 Bft) 97,62 %
26.10.2021 00:54 11,1 C 10,6 C 9,5 C 93 % 1018,9 hPa 0,0 l/m 0 min 0 min 0 W/m 12,9 km/h (3 Bft) 97,87 %
26.10.2021 00:56 11,1 C 10,6 C 9,5 C 93 % 1018,9 hPa 0,0 l/m 0 min 0 min 0 W/m 9,7 km/h (2 Bft) 97,83 %
26.10.2021 00:58 11,1 C 10,6 C 9,5 C 93 % 1018,9 hPa 0,0 l/m 0 min 0 min 0 W/m 9,7 km/h (2 Bft) 97,96 %
26.10.2021 01:00 11,1 C 10,6 C 8,9 C 93 % 1018,9 hPa 0,0 l/m 0 min 0 min 0 W/m 6,4 km/h (2 Bft) 97,87 %
26.10.2021 01:02 11,1 C 10,6 C 8,9 C 93 % 1018,9 hPa 0,0 l/m 0 min 0 min 0 W/m 3,2 km/h (1 Bft) 97,87 %
26.10.2021 01:04 11,1 C 10,6 C 8,9 C 93 % 1019,0 hPa 0,0 l/m 0 min 0 min 0 W/m 12,9 km/h (3 Bft) 95,74 %
26.10.2021 01:06 11,1 C 10,6 C 8,9 C 93 % 1019,0 hPa 0,0 l/m 0 min 0 min 0 W/m 6,4 km/h (2 Bft) 97,87 %
26.10.2021 01:08 11,1 C 10,6 C 8,9 C 93 % 1018,9 hPa 0,0 l/m 0 min 0 min 0 W/m 12,9 km/h (3 Bft) 97,83 %
26.10.2021 01:10 11,1 C 10,6 C 8,9 C 93 % 1019,0 hPa 0,0 l/m 0 min 0 min 0 W/m 9,7 km/h (2 Bft) 95,74 %
26.10.2021 01:12 11,1 C 10,6 C 8,9 C 93 % 1018,9 hPa 0,0 l/m 0 min 0 min 0 W/m 9,7 km/h (2 Bft) 95,74 %
26.10.2021 01:14 11,1 C 10,6 C 9,5 C 93 % 1018,9 hPa 0,0 l/m 0 min 0 min 0 W/m 9,7 km/h (2 Bft) 100,00 %
26.10.2021 01:16 11,0 C 10,6 C 9,5 C 93 % 1018,9 hPa 0,0 l/m 0 min 0 min 0 W/m 12,9 km/h (3 Bft) 100,00 %
26.10.2021 01:18 11,0 C 10,6 C 9,5 C 93 % 1018,9 hPa 0,0 l/m 0 min 0 min 0 W/m 6,4 km/h (2 Bft) 100,00 %
26.10.2021 01:20 11,0 C 10,6 C 9,5 C 93 % 1019,0 hPa 0,0 l/m 0 min 0 min 0 W/m 6,4 km/h (2 Bft) 97,83 %
26.10.2021 01:22 11,0 C 10,6 C 9,5 C 93 % 1019,0 hPa 0,0 l/m 0 min 0 min 0 W/m 6,4 km/h (2 Bft) 97,87 %
26.10.2021 01:24 11,0 C 10,6 C 9,5 C 93 % 1019,0 hPa 0,0 l/m 0 min 0 min 0 W/m 6,4 km/h (2 Bft) 100,00 %
26.10.2021 01:26 11,0 C 10,6 C 9,5 C 93 % 1019,0 hPa 0,0 l/m 0 min 0 min 0 W/m 6,4 km/h (2 Bft) 97,87 %
26.10.2021 01:28 11,0 C 10,6 C 9,5 C 93 % 1018,9 hPa 0,0 l/m 0 min 0 min 0 W/m 9,7 km/h (2 Bft) 97,87 %
26.10.2021 01:30 11,0 C 10,6 C 8,9 C 93 % 1018,9 hPa 0,0 l/m 0 min 0 min 0 W/m 9,7 km/h (2 Bft) 97,87 %
26.10.2021 01:32 11,0 C 10,6 C 8,9 C 93 % 1018,9 hPa 0,0 l/m 0 min 0 min 0 W/m 9,7 km/h (2 Bft) 97,83 %
26.10.2021 01:34 11,0 C 10,6 C 8,9 C 93 % 1018,9 hPa 0,0 l/m 0 min 0 min 0 W/m 6,4 km/h (2 Bft) 97,87 %
26.10.2021 01:36 11,0 C 10,6 C 8,9 C 93 % 1018,9 hPa 0,0 l/m 0 min 0 min 0 W/m 6,4 km/h (2 Bft) 97,87 %
26.10.2021 01:38 11,0 C 10,6 C 8,9 C 93 % 1018,9 hPa 0,0 l/m 0 min 0 min 0 W/m 16,1 km/h (3 Bft) 95,74 %
26.10.2021 01:40 11,0 C 10,6 C 8,9 C 93 % 1018,9 hPa 0,0 l/m 0 min 0 min 0 W/m 9,7 km/h (2 Bft) 95,74 %
26.10.2021 01:42 11,0 C 10,6 C 8,9 C 93 % 1019,0 hPa 0,0 l/m 0 min 0 min 0 W/m 6,4 km/h (2 Bft) 97,87 %
26.10.2021 01:44 11,0 C 10,6 C 8,9 C 93 % 1018,9 hPa 0,0 l/m 0 min 0 min 0 W/m 6,4 km/h (2 Bft) 97,83 %
26.10.2021 01:46 10,9 C 10,6 C 8,9 C 93 % 1019,0 hPa 0,0 l/m 0 min 0 min 0 W/m 6,4 km/h (2 Bft) 97,87 %
26.10.2021 01:48 10,9 C 10,6 C 8,9 C 93 % 1019,0 hPa 0,0 l/m 0 min 0 min 0 W/m 16,1 km/h (3 Bft) 97,87 %
26.10.2021 01:50 10,9 C 10,6 C 9,5 C 94 % 1019,0 hPa 0,0 l/m 0 min 0 min 0 W/m 6,4 km/h (2 Bft) 97,87 %
26.10.2021 01:52 10,9 C 10,6 C 9,5 C 94 % 1019,0 hPa 0,0 l/m 0 min 0 min 0 W/m 9,7 km/h (2 Bft) 97,87 %
26.10.2021 01:54 10,9 C 10,6 C 9,5 C 94 % 1019,0 hPa 0,0 l/m 0 min 0 min 0 W/m 3,2 km/h (1 Bft) 97,87 %
26.10.2021 01:56 10,9 C 10,6 C 9,5 C 94 % 1019,0 hPa 0,0 l/m 0 min 0 min 0 W/m 9,7 km/h (2 Bft) 97,83 %
26.10.2021 01:58 10,9 C 10,6 C 9,5 C 94 % 1019,0 hPa 0,0 l/m 0 min 0 min 0 W/m 6,4 km/h (2 Bft) 97,87 %
26.10.2021 02:00 10,9 C 10,6 C 9,5 C 94 % 1019,0 hPa 0,0 l/m 0 min 0 min 0 W/m 6,4 km/h (2 Bft) 97,87 %
26.10.2021 02:02 10,9 C 10,6 C 9,5 C 94 % 1019,0 hPa 0,0 l/m 0 min 0 min 0 W/m 3,2 km/h (1 Bft) 95,74 %
26.10.2021 02:04 10,9 C 10,6 C 9,5 C 94 % 1019,0 hPa 0,0 l/m 0 min 0 min 0 W/m 9,7 km/h (2 Bft) 97,87 %
26.10.2021 02:06 10,9 C 10,6 C 9,5 C 94 % 1019,0 hPa 0,0 l/m 0 min 0 min 0 W/m 12,9 km/h (3 Bft) 95,65 %
26.10.2021 02:08 10,9 C 10,6 C 9,5 C 94 % 1019,0 hPa 0,0 l/m 0 min 0 min 0 W/m 6,4 km/h (2 Bft) 97,87 %
26.10.2021 02:10 10,9 C 10,6 C 9,5 C 94 % 1019,0 hPa 0,0 l/m 0 min 0 min 0 W/m 6,4 km/h (2 Bft) 100,00 %
26.10.2021 02:12 10,9 C 10,6 C 9,5 C 94 % 1019,0 hPa 0,0 l/m 0 min 0 min 0 W/m 3,2 km/h (1 Bft) 100,00 %
26.10.2021 02:14 10,9 C 10,6 C 9,5 C 94 % 1018,9 hPa 0,0 l/m 0 min 0 min 0 W/m 9,7 km/h (2 Bft) 97,87 %
26.10.2021 02:16 10,9 C 10,6 C 9,5 C 94 % 1019,0 hPa 0,0 l/m 0 min 0 min 0 W/m 19,3 km/h (3 Bft) 100,00 %
26.10.2021 02:18 10,9 C 10,6 C 9,5 C 94 % 1018,9 hPa 0,0 l/m 0 min 0 min 0 W/m 3,2 km/h (1 Bft) 100,00 %
26.10.2021 02:20 10,9 C 10,6 C 9,5 C 94 % 1018,9 hPa 0,0 l/m 0 min 0 min 0 W/m 16,1 km/h (3 Bft) 97,87 %
26.10.2021 02:22 10,9 C 10,6 C 9,5 C 94 % 1018,9 hPa 0,0 l/m 0 min 0 min 0 W/m 9,7 km/h (2 Bft) 100,00 %
26.10.2021 02:24 10,9 C 10,6 C 9,5 C 94 % 1018,9 hPa 0,0 l/m 0 min 0 min 0 W/m 9,7 km/h (2 Bft) 100,00 %
26.10.2021 02:26 10,9 C 10,6 C 9,5 C 94 % 1018,9 hPa 0,0 l/m 0 min 0 min 0 W/m 6,4 km/h (2 Bft) 100,00 %
26.10.2021 02:28 10,9 C 10,6 C 9,5 C 94 % 1018,9 hPa 0,0 l/m 0 min 0 min 0 W/m 3,2 km/h (1 Bft) 100,00 %
26.10.2021 02:30 10,9 C 10,0 C 9,5 C 94 % 1019,0 hPa 0,0 l/m 0 min 0 min 0 W/m 3,2 km/h (1 Bft) 95,65 %
26.10.2021 02:32 10,9 C 10,0 C 8,9 C 94 % 1019,0 hPa 0,0 l/m 0 min 0 min 0 W/m 6,4 km/h (2 Bft) 95,74 %
26.10.2021 02:34 10,9 C 10,0 C 8,9 C 94 % 1019,0 hPa 0,0 l/m 0 min 0 min 0 W/m 6,4 km/h (2 Bft) 97,87 %
26.10.2021 02:36 10,9 C 10,0 C 9,5 C 94 % 1019,0 hPa 0,0 l/m 0 min 0 min 0 W/m 6,4 km/h (2 Bft) 97,87 %
26.10.2021 02:38 10,9 C 10,0 C 9,5 C 94 % 1019,0 hPa 0,0 l/m 0 min 0 min 0 W/m 6,4 km/h (2 Bft) 93,62 %
26.10.2021 02:40 10,9 C 10,0 C 9,5 C 94 % 1019,0 hPa 0,0 l/m 0 min 0 min 0 W/m 3,2 km/h (1 Bft) 95,74 %
26.10.2021 02:42 10,8 C 10,0 C 9,5 C 94 % 1019,0 hPa 0,0 l/m 0 min 0 min 0 W/m 3,2 km/h (1 Bft) 95,65 %
26.10.2021 02:44 10,8 C 10,0 C 9,5 C 94 % 1019,0 hPa 0,0 l/m 0 min 0 min 0 W/m 6,4 km/h (2 Bft) 95,74 %
26.10.2021 02:46 10,8 C 10,0 C 9,5 C 94 % 1019,0 hPa 0,0 l/m 0 min 0 min 0 W/m 12,9 km/h (3 Bft) 91,49 %
26.10.2021 02:48 10,8 C 10,0 C 8,9 C 94 % 1019,0 hPa 0,0 l/m 0 min 0 min 0 W/m 6,4 km/h (2 Bft) 93,62 %
26.10.2021 02:50 10,8 C 10,0 C 9,5 C 94 % 1019,0 hPa 0,0 l/m 0 min 0 min 0 W/m 9,7 km/h (2 Bft) 95,74 %
26.10.2021 02:52 10,8 C 10,0 C 9,5 C 94 % 1019,0 hPa 0,0 l/m 0 min 0 min 0 W/m 6,4 km/h (2 Bft) 95,74 %
26.10.2021 02:54 10,8 C 10,0 C 9,5 C 94 % 1019,0 hPa 0,0 l/m 0 min 0 min 0 W/m 6,4 km/h (2 Bft) 93,48 %
26.10.2021 02:56 10,8 C 10,0 C 9,5 C 94 % 1019,0 hPa 0,0 l/m 0 min 0 min 0 W/m 3,2 km/h (1 Bft) 91,49 %
26.10.2021 02:58 10,8 C 10,0 C 9,5 C 94 % 1019,0 hPa 0,0 l/m 0 min 0 min 0 W/m 6,4 km/h (2 Bft) 95,74 %
26.10.2021 03:00 10,8 C 10,0 C 9,5 C 94 % 1019,0 hPa 0,0 l/m 0 min 0 min 0 W/m 6,4 km/h (2 Bft) 95,74 %
26.10.2021 03:02 10,8 C 10,0 C 9,5 C 94 % 1019,0 hPa 0,0 l/m 0 min 0 min 0 W/m 6,4 km/h (2 Bft) 95,74 %
26.10.2021 03:04 10,8 C 10,6 C 9,5 C 94 % 1019,0 hPa 0,0 l/m 0 min 0 min 0 W/m 12,9 km/h (3 Bft) 93,62 %
26.10.2021 03:06 10,8 C 10,6 C 9,5 C 94 % 1019,0 hPa 0,0 l/m 0 min 0 min 0 W/m 16,1 km/h (3 Bft) 95,65 %
26.10.2021 03:08 10,8 C 10,6 C 9,5 C 94 % 1019,1 hPa 0,0 l/m 0 min 0 min 0 W/m 9,7 km/h (2 Bft) 95,74 %
26.10.2021 03:10 10,8 C 10,0 C 9,5 C 94 % 1019,0 hPa 0,0 l/m 0 min 0 min 0 W/m 6,4 km/h (2 Bft) 97,87 %
26.10.2021 03:12 10,8 C 10,0 C 9,5 C 94 % 1019,0 hPa 0,0 l/m 0 min 0 min 0 W/m 12,9 km/h (3 Bft) 97,87 %
26.10.2021 03:14 10,8 C 10,0 C 9,5 C 94 % 1019,0 hPa 0,0 l/m 0 min 0 min 0 W/m 12,9 km/h (3 Bft) 95,74 %
26.10.2021 03:16 10,8 C 10,0 C 9,5 C 94 % 1019,1 hPa 0,0 l/m 0 min 0 min 0 W/m 16,1 km/h (3 Bft) 97,87 %
26.10.2021 03:18 10,8 C 10,0 C 9,5 C 94 % 1019,1 hPa 0,0 l/m 0 min 0 min 0 W/m 16,1 km/h (3 Bft) 97,83 %
26.10.2021 03:20 10,8 C 10,0 C 9,5 C 94 % 1019,1 hPa 0,0 l/m 0 min 0 min 0 W/m 6,4 km/h (2 Bft) 97,87 %
26.10.2021 03:22 10,8 C 10,0 C 9,5 C 94 % 1019,1 hPa 0,0 l/m 0 min 0 min 0 W/m 6,4 km/h (2 Bft) 100,00 %
26.10.2021 03:24 10,8 C 10,0 C 9,5 C 94 % 1019,1 hPa 0,0 l/m 0 min 0 min 0 W/m 9,7 km/h (2 Bft) 97,87 %
26.10.2021 03:26 10,8 C 10,0 C 9,5 C 94 % 1019,1 hPa 0,0 l/m 0 min 0 min 0 W/m 12,9 km/h (3 Bft) 97,87 %
26.10.2021 03:28 10,7 C 10,0 C 9,5 C 94 % 1019,1 hPa 0,0 l/m 0 min 0 min 0 W/m 6,4 km/h (2 Bft) 97,87 %
26.10.2021 03:30 10,7 C 10,0 C 9,5 C 94 % 1019,1 hPa 0,0 l/m 0 min 0 min 0 W/m 6,4 km/h (2 Bft) 97,83 %
26.10.2021 03:32 10,7 C 10,0 C 8,9 C 94 % 1019,1 hPa 0,0 l/m 0 min 0 min 0 W/m 6,4 km/h (2 Bft) 100,00 %
26.10.2021 03:34 10,7 C 10,0 C 8,9 C 94 % 1019,1 hPa 0,0 l/m 0 min 0 min 0 W/m 9,7 km/h (2 Bft) 100,00 %
26.10.2021 03:36 10,6 C 10,0 C 9,5 C 94 % 1019,1 hPa 0,0 l/m 0 min 0 min 0 W/m 3,2 km/h (1 Bft) 100,00 %
26.10.2021 03:38 10,6 C 10,0 C 9,5 C 94 % 1019,1 hPa 0,0 l/m 0 min 0 min 0 W/m 6,4 km/h (2 Bft) 97,92 %
26.10.2021 03:40 10,6 C 10,0 C 8,9 C 94 % 1019,1 hPa 0,0 l/m 0 min 0 min 0 W/m 6,4 km/h (2 Bft) 100,00 %
26.10.2021 03:42 10,6 C 10,0 C 8,9 C 94 % 1019,1 hPa 0,0 l/m 0 min 0 min 0 W/m 6,4 km/h (2 Bft) 100,00 %
26.10.2021 03:44 10,6 C 10,0 C 8,9 C 94 % 1019,2 hPa 0,0 l/m 0 min 0 min 0 W/m 6,4 km/h (2 Bft) 97,87 %
26.10.2021 03:46 10,6 C 10,0 C 8,9 C 94 % 1019,2 hPa 0,0 l/m 0 min 0 min 0 W/m 6,4 km/h (2 Bft) 100,00 %
26.10.2021 03:48 10,6 C 10,0 C 8,9 C 94 % 1019,2 hPa 0,0 l/m 0 min 0 min 0 W/m 6,4 km/h (2 Bft) 97,87 %
26.10.2021 03:50 10,6 C 10,0 C 9,5 C 94 % 1019,2 hPa 0,0 l/m 0 min 0 min 0 W/m 16,1 km/h (3 Bft) 100,00 %
26.10.2021 03:52 10,6 C 10,0 C 9,5 C 94 % 1019,1 hPa 0,0 l/m 0 min 0 min 0 W/m 12,9 km/h (3 Bft) 100,00 %
26.10.2021 03:54 10,6 C 10,0 C 9,5 C 94 % 1019,2 hPa 0,0 l/m 0 min 0 min 0 W/m 12,9 km/h (3 Bft) 100,00 %
26.10.2021 03:56 10,6 C 10,0 C 9,5 C 94 % 1019,2 hPa 0,0 l/m 0 min 0 min 0 W/m 9,7 km/h (2 Bft) 97,87 %
26.10.2021 03:58 10,6 C 10,0 C 9,5 C 94 % 1019,2 hPa 0,0 l/m 0 min 0 min 0 W/m 9,7 km/h (2 Bft) 100,00 %
26.10.2021 04:00 10,6 C 10,0 C 9,5 C 94 % 1019,2 hPa 0,0 l/m 0 min 0 min 0 W/m 6,4 km/h (2 Bft) 97,87 %
26.10.2021 04:02 10,6 C 10,0 C 9,5 C 94 % 1019,2 hPa 0,0 l/m 0 min 0 min 0 W/m 3,2 km/h (1 Bft) 100,00 %
26.10.2021 04:04 10,6 C 10,0 C 9,5 C 94 % 1019,2 hPa 0,0 l/m 0 min 0 min 0 W/m 12,9 km/h (3 Bft) 97,87 %
26.10.2021 04:06 10,6 C 10,0 C 9,5 C 94 % 1019,2 hPa 0,0 l/m 0 min 0 min 0 W/m 12,9 km/h (3 Bft) 93,48 %
26.10.2021 04:08 10,6 C 10,0 C 9,5 C 94 % 1019,2 hPa 0,0 l/m 0 min 0 min 0 W/m 6,4 km/h (2 Bft) 95,74 %
26.10.2021 04:10 10,6 C 10,0 C 9,5 C 94 % 1019,2 hPa 0,0 l/m 0 min 0 min 0 W/m 12,9 km/h (3 Bft) 97,87 %
26.10.2021 04:12 10,6 C 10,0 C 9,5 C 95 % 1019,2 hPa 0,0 l/m 0 min 0 min 0 W/m 9,7 km/h (2 Bft) 97,87 %
26.10.2021 04:14 10,6 C 10,0 C 9,5 C 95 % 1019,2 hPa 0,0 l/m 0 min 0 min 0 W/m 9,7 km/h (2 Bft) 97,87 %
26.10.2021 04:16 10,6 C 10,0 C 9,5 C 95 % 1019,1 hPa 0,0 l/m 0 min 0 min 0 W/m 12,9 km/h (3 Bft) 97,83 %
26.10.2021 04:18 10,6 C 10,0 C 9,5 C 95 % 1019,1 hPa 0,0 l/m 0 min 0 min 0 W/m 12,9 km/h (3 Bft) 97,87 %
26.10.2021 04:20 10,6 C 10,0 C 9,5 C 95 % 1019,1 hPa 0,0 l/m 0 min 0 min 0 W/m 9,7 km/h (2 Bft) 97,87 %
26.10.2021 04:22 10,6 C 10,0 C 9,5 C 95 % 1019,1 hPa 0,0 l/m 0 min 0 min 0 W/m 6,4 km/h (2 Bft) 93,62 %
26.10.2021 04:24 10,6 C 10,0 C 9,5 C 95 % 1019,1 hPa 0,0 l/m 0 min 0 min 0 W/m 9,7 km/h (2 Bft) 97,87 %
26.10.2021 04:26 10,6 C 10,0 C 9,5 C 95 % 1019,1 hPa 0,0 l/m 0 min 0 min 0 W/m 6,4 km/h (2 Bft) 97,87 %
26.10.2021 04:28 10,6 C 10,0 C 9,5 C 95 % 1019,1 hPa 0,0 l/m 0 min 0 min 0 W/m 9,7 km/h (2 Bft) 97,83 %
26.10.2021 04:30 10,6 C 10,0 C 9,5 C 95 % 1019,1 hPa 0,0 l/m 0 min 0 min 0 W/m 3,2 km/h (1 Bft) 97,87 %
26.10.2021 04:32 10,6 C 10,0 C 8,9 C 95 % 1019,2 hPa 0,0 l/m 0 min 0 min 0 W/m 6,4 km/h (2 Bft) 95,74 %
26.10.2021 04:34 10,6 C 10,0 C 8,9 C 95 % 1019,2 hPa 0,0 l/m 0 min 0 min 0 W/m 6,4 km/h (2 Bft) 95,74 %
26.10.2021 04:36 10,6 C 10,0 C 9,5 C 95 % 1019,2 hPa 0,0 l/m 0 min 0 min 0 W/m 6,4 km/h (2 Bft) 95,74 %
26.10.2021 04:38 10,6 C 10,0 C 9,5 C 95 % 1019,1 hPa 0,0 l/m 0 min 0 min 0 W/m 12,9 km/h (3 Bft) 95,74 %
26.10.2021 04:40 10,6 C 10,0 C 9,5 C 95 % 1019,1 hPa 0,0 l/m 0 min 0 min 0 W/m 9,7 km/h (2 Bft) 97,83 %
26.10.2021 04:42 10,6 C 10,0 C 9,5 C 95 % 1019,1 hPa 0,0 l/m 0 min 0 min 0 W/m 9,7 km/h (2 Bft) 95,74 %
26.10.2021 04:44 10,6 C 10,0 C 9,5 C 95 % 1019,1 hPa 0,0 l/m 0 min 0 min 0 W/m 9,7 km/h (2 Bft) 93,62 %
26.10.2021 04:46 10,6 C 10,0 C 9,5 C 95 % 1019,1 hPa 0,0 l/m 0 min 0 min 0 W/m 6,4 km/h (2 Bft) 95,74 %
26.10.2021 04:48 10,6 C 10,0 C 9,5 C 95 % 1019,1 hPa 0,0 l/m 0 min 0 min 0 W/m 6,4 km/h (2 Bft) 97,87 %
26.10.2021 04:50 10,6 C 10,0 C 9,5 C 95 % 1019,1 hPa 0,0 l/m 0 min 0 min 0 W/m 6,4 km/h (2 Bft) 97,87 %
26.10.2021 04:52 10,6 C 10,0 C 9,5 C 95 % 1019,2 hPa 0,0 l/m 0 min 0 min 0 W/m 3,2 km/h (1 Bft) 95,65 %
26.10.2021 04:54 10,6 C 10,0 C 9,5 C 95 % 1019,2 hPa 0,0 l/m 0 min 0 min 0 W/m 16,1 km/h (3 Bft) 97,87 %
26.10.2021 04:56 10,6 C 10,0 C 9,5 C 95 % 1019,2 hPa 0,0 l/m 0 min 0 min 0 W/m 6,4 km/h (2 Bft) 100,00 %
26.10.2021 04:58 10,6 C 10,0 C 9,5 C 95 % 1019,2 hPa 0,0 l/m 0 min 0 min 0 W/m 6,4 km/h (2 Bft) 97,87 %
26.10.2021 05:00 10,6 C 10,0 C 9,5 C 95 % 1019,2 hPa 0,0 l/m 0 min 0 min 0 W/m 12,9 km/h (3 Bft) 97,87 %
26.10.2021 05:02 10,6 C 10,0 C 9,5 C 95 % 1019,2 hPa 0,0 l/m 0 min 0 min 0 W/m 9,7 km/h (2 Bft) 97,92 %
26.10.2021 05:04 10,6 C 10,0 C 9,5 C 95 % 1019,2 hPa 0,0 l/m 0 min 0 min 0 W/m 6,4 km/h (2 Bft) 100,00 %
26.10.2021 05:06 10,6 C 10,0 C 9,5 C 95 % 1019,1 hPa 0,0 l/m 0 min 0 min 0 W/m 3,2 km/h (1 Bft) 97,87 %
26.10.2021 05:08 10,6 C 10,0 C 9,5 C 95 % 1019,1 hPa 0,0 l/m 0 min 0 min 0 W/m 3,2 km/h (1 Bft) 100,00 %
26.10.2021 05:10 10,6 C 10,0 C 8,9 C 95 % 1019,1 hPa 0,0 l/m 0 min 0 min 0 W/m 9,7 km/h (2 Bft) 100,00 %
26.10.2021 05:12 10,6 C 10,0 C 8,9 C 95 % 1019,1 hPa 0,0 l/m 0 min 0 min 0 W/m 6,4 km/h (2 Bft) 100,00 %
26.10.2021 05:14 10,6 C 10,0 C 8,9 C 95 % 1019,0 hPa 0,0 l/m 0 min 0 min 0 W/m 9,7 km/h (2 Bft) 100,00 %
26.10.2021 05:16 10,6 C 10,0 C 8,9 C 95 % 1019,0 hPa 0,0 l/m 0 min 0 min 0 W/m 6,4 km/h (2 Bft) 100,00 %
26.10.2021 05:18 10,6 C 10,0 C 8,9 C 95 % 1019,1 hPa 0,0 l/m 0 min 0 min 0 W/m 6,4 km/h (2 Bft) 100,00 %
26.10.2021 05:20 10,6 C 10,0 C 8,9 C 95 % 1019,1 hPa 0,0 l/m 0 min 0 min 0 W/m 6,4 km/h (2 Bft) 100,00 %
26.10.2021 05:22 10,5 C 10,0 C 8,9 C 95 % 1019,1 hPa 0,0 l/m 0 min 0 min 0 W/m 3,2 km/h (1 Bft) 100,00 %
26.10.2021 05:24 10,5 C 10,0 C 8,9 C 95 % 1019,1 hPa 0,0 l/m 0 min 0 min 0 W/m 3,2 km/h (1 Bft) 95,74 %
26.10.2021 05:26 10,5 C 10,0 C 8,9 C 95 % 1019,1 hPa 0,0 l/m 0 min 0 min 0 W/m 3,2 km/h (1 Bft) 97,87 %
26.10.2021 05:28 10,5 C 9,4 C 8,9 C 95 % 1019,1 hPa 0,0 l/m 0 min 0 min 0 W/m 3,2 km/h (1 Bft) 97,83 %
26.10.2021 05:30 10,5 C 9,4 C 8,9 C 95 % 1019,2 hPa 0,0 l/m 0 min 0 min 0 W/m 6,4 km/h (2 Bft) 95,74 %
26.10.2021 05:32 10,5 C 9,4 C 8,9 C 95 % 1019,1 hPa 0,0 l/m 0 min 0 min 0 W/m 0,0 km/h (0 Bft) 97,87 %
26.10.2021 05:34 10,4 C 9,4 C 8,9 C 95 % 1019,2 hPa 0,0 l/m 0 min 0 min 0 W/m 6,4 km/h (2 Bft) 97,87 %
26.10.2021 05:36 10,4 C 9,4 C 8,9 C 95 % 1019,2 hPa 0,0 l/m 0 min 0 min 0 W/m 3,2 km/h (1 Bft) 97,87 %
26.10.2021 05:38 10,4 C 9,4 C 8,9 C 95 % 1019,2 hPa 0,0 l/m 0 min 0 min 0 W/m 3,2 km/h (1 Bft) 95,74 %
26.10.2021 05:40 10,4 C 9,4 C 8,9 C 95 % 1019,2 hPa 0,0 l/m 0 min 0 min 0 W/m 3,2 km/h (1 Bft) 97,83 %
26.10.2021 05:42 10,4 C 9,4 C 8,9 C 95 % 1019,2 hPa 0,0 l/m 0 min 0 min 0 W/m 3,2 km/h (1 Bft) 97,87 %
26.10.2021 05:44 10,4 C 10,0 C 8,9 C 95 % 1019,2 hPa 0,0 l/m 0 min 0 min 0 W/m 3,2 km/h (1 Bft) 97,87 %
26.10.2021 05:46 10,4 C 10,0 C 8,9 C 95 % 1019,2 hPa 0,0 l/m 0 min 0 min 0 W/m 6,4 km/h (2 Bft) 97,87 %
26.10.2021 05:48 10,5 C 10,0 C 8,9 C 95 % 1019,2 hPa 0,0 l/m 0 min 0 min 0 W/m 3,2 km/h (1 Bft) 97,87 %
26.10.2021 05:50 10,5 C 10,0 C 8,9 C 95 % 1019,3 hPa 0,0 l/m 0 min 0 min 0 W/m 6,4 km/h (2 Bft) 95,65 %
26.10.2021 05:52 10,5 C 10,0 C 9,5 C 95 % 1019,3 hPa 0,0 l/m 0 min 0 min 0 W/m 3,2 km/h (1 Bft) 97,87 %
26.10.2021 05:54 10,5 C 10,0 C 9,5 C 95 % 1019,3 hPa 0,0 l/m 0 min 0 min 0 W/m 3,2 km/h (1 Bft) 97,87 %
26.10.2021 05:56 10,5 C 10,0 C 9,5 C 95 % 1019,3 hPa 0,0 l/m 0 min 0 min 0 W/m 6,4 km/h (2 Bft) 95,74 %
26.10.2021 05:58 10,6 C 10,0 C 9,5 C 95 % 1019,3 hPa 0,0 l/m 0 min 0 min 0 W/m 6,4 km/h (2 Bft) 95,74 %
26.10.2021 06:00 10,6 C 10,0 C 9,5 C 95 % 1019,3 hPa 0,0 l/m 0 min 0 min 0 W/m 6,4 km/h (2 Bft) 97,87 %
26.10.2021 06:02 10,6 C 10,0 C 9,5 C 95 % 1019,3 hPa 0,0 l/m 0 min 0 min 0 W/m 3,2 km/h (1 Bft) 97,83 %
26.10.2021 06:04 10,6 C 10,0 C 9,5 C 95 % 1019,4 hPa 0,0 l/m 0 min 0 min 0 W/m 3,2 km/h (1 Bft) 95,74 %
26.10.2021 06:06 10,6 C 10,0 C 9,5 C 95 % 1019,4 hPa 0,0 l/m 0 min 0 min 0 W/m 6,4 km/h (2 Bft) 97,87 %
26.10.2021 06:08 10,6 C 10,0 C 9,5 C 95 % 1019,4 hPa 0,0 l/m 0 min 0 min 0 W/m 9,7 km/h (2 Bft) 97,87 %
26.10.2021 06:10 10,6 C 10,0 C 9,5 C 95 % 1019,4 hPa 0,0 l/m 0 min 0 min 0 W/m 3,2 km/h (1 Bft) 97,87 %
26.10.2021 06:12 10,7 C 10,6 C 9,5 C 96 % 1019,4 hPa 0,0 l/m 0 min 0 min 0 W/m 12,9 km/h (3 Bft) 97,87 %
26.10.2021 06:14 10,7 C 10,6 C 9,5 C 96 % 1019,5 hPa 0,0 l/m 0 min 0 min 0 W/m 16,1 km/h (3 Bft) 100,00 %
26.10.2021 06:16 10,7 C 10,6 C 9,5 C 96 % 1019,5 hPa 0,0 l/m 0 min 0 min 0 W/m 9,7 km/h (2 Bft) 100,00 %
26.10.2021 06:18 10,7 C 10,6 C 9,5 C 96 % 1019,6 hPa 0,0 l/m 0 min 0 min 0 W/m 6,4 km/h (2 Bft) 97,87 %
26.10.2021 06:20 10,7 C 10,6 C 9,5 C 96 % 1019,6 hPa 0,0 l/m 0 min 0 min 0 W/m 6,4 km/h (2 Bft) 100,00 %
26.10.2021 06:22 10,8 C 10,6 C 9,5 C 96 % 1019,7 hPa 0,0 l/m 0 min 0 min 0 W/m 3,2 km/h (1 Bft) 97,87 %
26.10.2021 06:24 10,8 C 10,6 C 9,5 C 96 % 1019,6 hPa 0,0 l/m 0 min 0 min 0 W/m 3,2 km/h (1 Bft) 97,87 %
26.10.2021 06:26 10,8 C 10,6 C 9,5 C 96 % 1019,6 hPa 0,0 l/m 0 min 0 min 0 W/m 12,9 km/h (3 Bft) 100,00 %
26.10.2021 06:28 10,8 C 10,6 C 9,5 C 96 % 1019,6 hPa 0,0 l/m 0 min 0 min 0 W/m 3,2 km/h (1 Bft) 95,74 %
26.10.2021 06:30 10,8 C 10,6 C 9,5 C 96 % 1019,6 hPa 0,0 l/m 0 min 0 min 0 W/m 9,7 km/h (2 Bft) 93,62 %
26.10.2021 06:32 10,8 C 10,6 C 9,5 C 96 % 1019,7 hPa 0,0 l/m 0 min 0 min 0 W/m 9,7 km/h (2 Bft) 97,87 %
26.10.2021 06:34 10,8 C 10,6 C 9,5 C 96 % 1019,7 hPa 0,0 l/m 0 min 0 min 0 W/m 6,4 km/h (2 Bft) 95,74 %
26.10.2021 06:36 10,8 C 10,6 C 9,5 C 96 % 1019,7 hPa 0,0 l/m 0 min 0 min 0 W/m 6,4 km/h (2 Bft) 95,74 %
26.10.2021 06:38 10,8 C 10,6 C 9,5 C 96 % 1019,6 hPa 0,0 l/m 0 min 0 min 0 W/m 6,4 km/h (2 Bft) 95,65 %
26.10.2021 06:40 10,8 C 10,6 C 9,5 C 96 % 1019,7 hPa 0,0 l/m 0 min 0 min 0 W/m 6,4 km/h (2 Bft) 95,74 %
26.10.2021 06:42 10,8 C 10,6 C 9,5 C 96 % 1019,7 hPa 0,0 l/m 0 min 0 min 0 W/m 9,7 km/h (2 Bft) 95,74 %
26.10.2021 06:44 10,8 C 10,6 C 9,5 C 96 % 1019,7 hPa 0,0 l/m 0 min 0 min 0 W/m 6,4 km/h (2 Bft) 95,74 %
26.10.2021 06:46 10,8 C 10,6 C 9,5 C 96 % 1019,7 hPa 0,0 l/m 0 min 0 min 0 W/m 9,7 km/h (2 Bft) 93,62 %
26.10.2021 06:48 10,9 C 10,6 C 9,5 C 96 % 1019,7 hPa 0,0 l/m 0 min 0 min 0 W/m 6,4 km/h (2 Bft) 95,74 %
26.10.2021 06:50 10,9 C 10,6 C 9,5 C 96 % 1019,7 hPa 0,0 l/m 0 min 0 min 0 W/m 12,9 km/h (3 Bft) 95,65 %
26.10.2021 06:52 10,9 C 10,6 C 9,5 C 96 % 1019,7 hPa 0,0 l/m 0 min 0 min 0 W/m 9,7 km/h (2 Bft) 95,74 %
26.10.2021 06:54 10,9 C 10,6 C 9,5 C 95 % 1019,7 hPa 0,0 l/m 0 min 0 min 0 W/m 12,9 km/h (3 Bft) 95,74 %
26.10.2021 06:56 10,9 C 10,6 C 9,5 C 95 % 1019,7 hPa 0,0 l/m 0 min 0 min 0 W/m 12,9 km/h (3 Bft) 95,74 %
26.10.2021 06:58 10,9 C 10,6 C 9,5 C 95 % 1019,7 hPa 0,0 l/m 0 min 0 min 0 W/m 16,1 km/h (3 Bft) 95,74 %
26.10.2021 07:00 10,9 C 10,6 C 9,5 C 95 % 1019,7 hPa 0,0 l/m 0 min 0 min 0 W/m 12,9 km/h (3 Bft) 95,74 %
26.10.2021 07:02 10,9 C 10,6 C 9,5 C 95 % 1019,7 hPa 0,0 l/m 0 min 0 min 0 W/m 6,4 km/h (2 Bft) 97,83 %
26.10.2021 07:05 10,9 C 10,6 C 9,5 C 95 % 1019,7 hPa 0,0 l/m 0 min 0 min 0 W/m 9,7 km/h (2 Bft) 97,18 %
26.10.2021 07:06 10,9 C 10,6 C 9,5 C 95 % 1019,7 hPa 0,0 l/m 0 min 0 min 0 W/m 6,4 km/h (2 Bft) 100,00 %
26.10.2021 07:08 10,9 C 10,6 C 9,5 C 95 % 1019,8 hPa 0,0 l/m 0 min 0 min 0 W/m 12,9 km/h (3 Bft) 95,74 %
26.10.2021 07:10 10,9 C 10,6 C 9,5 C 95 % 1019,8 hPa 0,0 l/m 0 min 0 min 0 W/m 6,4 km/h (2 Bft) 100,00 %
26.10.2021 07:12 11,0 C 10,6 C 10,0 C 95 % 1019,8 hPa 0,0 l/m 0 min 0 min 0 W/m 12,9 km/h (3 Bft) 97,83 %
26.10.2021 07:14 11,0 C 10,6 C 10,0 C 95 % 1019,8 hPa 0,0 l/m 0 min 0 min 0 W/m 9,7 km/h (2 Bft) 97,87 %
26.10.2021 07:16 11,0 C 10,6 C 10,0 C 95 % 1019,8 hPa 0,0 l/m 0 min 0 min 0 W/m 6,4 km/h (2 Bft) 97,87 %
26.10.2021 07:18 11,0 C 10,6 C 10,0 C 95 % 1019,9 hPa 0,0 l/m 0 min 0 min 0 W/m 12,9 km/h (3 Bft) 97,87 %
26.10.2021 07:20 11,0 C 10,6 C 10,0 C 95 % 1019,9 hPa 0,0 l/m 0 min 0 min 0 W/m 3,2 km/h (1 Bft) 97,87 %
26.10.2021 07:22 11,0 C 10,6 C 10,0 C 95 % 1020,0 hPa 0,0 l/m 0 min 0 min 0 W/m 3,2 km/h (1 Bft) 97,87 %
26.10.2021 07:24 11,0 C 10,6 C 10,0 C 95 % 1020,0 hPa 0,0 l/m 0 min 0 min 0 W/m 6,4 km/h (2 Bft) 100,00 %
26.10.2021 07:26 11,0 C 10,6 C 10,0 C 95 % 1020,0 hPa 0,0 l/m 0 min 0 min 0 W/m 3,2 km/h (1 Bft) 97,83 %
26.10.2021 07:28 11,0 C 10,6 C 10,0 C 95 % 1020,0 hPa 0,0 l/m 0 min 0 min 0 W/m 3,2 km/h (1 Bft) 100,00 %
26.10.2021 07:30 11,0 C 10,6 C 9,5 C 95 % 1020,1 hPa 0,0 l/m 0 min 0 min 0 W/m 6,4 km/h (2 Bft) 100,00 %
26.10.2021 07:32 11,0 C 10,6 C 9,5 C 95 % 1020,0 hPa 0,0 l/m 0 min 0 min 0 W/m 6,4 km/h (2 Bft) 100,00 %
26.10.2021 07:34 11,0 C 10,6 C 9,5 C 95 % 1020,0 hPa 0,0 l/m 0 min 0 min 0 W/m 3,2 km/h (1 Bft) 100,00 %
26.10.2021 07:36 11,0 C 10,6 C 10,0 C 95 % 1020,0 hPa 0,0 l/m 0 min 0 min 0 W/m 3,2 km/h (1 Bft) 97,83 %
26.10.2021 07:38 11,0 C 10,6 C 9,5 C 95 % 1020,0 hPa 0,0 l/m 0 min 0 min 0 W/m 6,4 km/h (2 Bft) 100,00 %
26.10.2021 07:40 11,0 C 10,6 C 9,5 C 95 % 1020,0 hPa 0,0 l/m 0 min 0 min 0 W/m 6,4 km/h (2 Bft) 100,00 %
26.10.2021 07:42 11,0 C 10,6 C 9,5 C 95 % 1020,0 hPa 0,0 l/m 0 min 0 min 0 W/m 6,4 km/h (2 Bft) 100,00 %
26.10.2021 07:44 11,0 C 10,6 C 10,0 C 95 % 1020,0 hPa 0,0 l/m 0 min 0 min 0 W/m 6,4 km/h (2 Bft) 100,00 %
26.10.2021 07:46 11,0 C 10,6 C 10,0 C 95 % 1020,0 hPa 0,0 l/m 0 min 0 min 0 W/m 3,2 km/h (1 Bft) 100,00 %
26.10.2021 07:48 11,0 C 10,6 C 10,0 C 95 % 1020,0 hPa 0,0 l/m 0 min 0 min 0 W/m 12,9 km/h (3 Bft) 100,00 %
26.10.2021 07:50 11,0 C 10,6 C 10,0 C 95 % 1020,0 hPa 0,0 l/m 0 min 0 min 0 W/m 9,7 km/h (2 Bft) 100,00 %
26.10.2021 07:52 11,0 C 10,6 C 10,0 C 95 % 1020,0 hPa 0,0 l/m 0 min 0 min 0 W/m 6,4 km/h (2 Bft) 100,00 %
26.10.2021 07:54 11,0 C 10,6 C 10,0 C 95 % 1020,0 hPa 0,0 l/m 0 min 0 min 0 W/m 6,4 km/h (2 Bft) 100,00 %
26.10.2021 07:56 11,0 C 10,6 C 10,0 C 95 % 1020,0 hPa 0,0 l/m 0 min 0 min 0 W/m 12,9 km/h (3 Bft) 100,00 %
26.10.2021 07:58 11,0 C 10,6 C 10,0 C 95 % 1020,1 hPa 0,0 l/m 0 min 0 min 0 W/m 9,7 km/h (2 Bft) 100,00 %
26.10.2021 08:00 11,0 C 10,6 C 10,0 C 95 % 1020,1 hPa 0,0 l/m 0 min 0 min 0 W/m 6,4 km/h (2 Bft) 100,00 %
26.10.2021 08:02 11,0 C 10,6 C 10,0 C 95 % 1020,1 hPa 0,0 l/m 0 min 0 min 0 W/m 6,4 km/h (2 Bft) 97,87 %
26.10.2021 08:04 11,0 C 10,6 C 10,0 C 95 % 1020,1 hPa 0,0 l/m 0 min 0 min 0 W/m 6,4 km/h (2 Bft) 100,00 %
26.10.2021 08:06 11,0 C 10,6 C 10,0 C 95 % 1020,1 hPa 0,0 l/m 0 min 0 min 0 W/m 6,4 km/h (2 Bft) 97,87 %
26.10.2021 08:08 11,0 C 10,6 C 10,0 C 95 % 1020,1 hPa 0,0 l/m 0 min 0 min 0 W/m 12,9 km/h (3 Bft) 100,00 %
26.10.2021 08:10 11,0 C 10,6 C 10,0 C 95 % 1020,2 hPa 0,0 l/m 0 min 0 min 0 W/m 12,9 km/h (3 Bft) 100,00 %
26.10.2021 08:12 11,0 C 10,6 C 10,0 C 95 % 1020,2 hPa 0,0 l/m 0 min 0 min 0 W/m 6,4 km/h (2 Bft) 100,00 %
26.10.2021 08:14 11,0 C 10,6 C 10,0 C 95 % 1020,3 hPa 0,0 l/m 0 min 0 min 0 W/m 12,9 km/h (3 Bft) 100,00 %
26.10.2021 08:16 11,0 C 10,6 C 10,0 C 95 % 1020,3 hPa 0,0 l/m 0 min 0 min 0 W/m 6,4 km/h (2 Bft) 97,87 %
26.10.2021 08:18 11,0 C 10,6 C 10,0 C 95 % 1020,3 hPa 0,0 l/m 0 min 0 min 0 W/m 12,9 km/h (3 Bft) 97,87 %
26.10.2021 08:20 11,0 C 10,6 C 10,0 C 95 % 1020,3 hPa 0,0 l/m 0 min 0 min 0 W/m 9,7 km/h (2 Bft) 95,74 %
26.10.2021 08:22 11,0 C 10,6 C 10,0 C 95 % 1020,4 hPa 0,0 l/m 0 min 0 min 0 W/m 6,4 km/h (2 Bft) 97,87 %
26.10.2021 08:24 11,0 C 10,6 C 10,0 C 95 % 1020,4 hPa 0,0 l/m 0 min 0 min 0 W/m 6,4 km/h (2 Bft) 95,65 %
26.10.2021 08:26 11,0 C 10,6 C 10,0 C 95 % 1020,4 hPa 0,0 l/m 0 min 0 min 0 W/m 19,3 km/h (3 Bft) 95,74 %
26.10.2021 08:28 11,0 C 10,6 C 10,0 C 95 % 1020,5 hPa 0,0 l/m 0 min 0 min 0 W/m 6,4 km/h (2 Bft) 95,74 %
26.10.2021 08:30 11,0 C 10,6 C 10,0 C 95 % 1020,5 hPa 0,0 l/m 0 min 0 min 5 W/m 6,4 km/h (2 Bft) 95,74 %
26.10.2021 08:32 11,0 C 10,6 C 10,0 C 95 % 1020,5 hPa 0,0 l/m 0 min 0 min 5 W/m 3,2 km/h (1 Bft) 91,49 %
26.10.2021 08:34 11,0 C 10,6 C 10,0 C 95 % 1020,5 hPa 0,0 l/m 0 min 0 min 5 W/m 3,2 km/h (1 Bft) 97,71 %
26.10.2021 08:35 11,0 C 10,6 C 10,0 C 95 % 1020,5 hPa 0,0 l/m 0 min 0 min 5 W/m 19,3 km/h (3 Bft) 99,12 %
26.10.2021 08:40 11,0 C 10,6 C 10,0 C 95 % 1020,7 hPa 0,0 l/m 0 min 0 min 5 W/m 6,4 km/h (2 Bft) 94,59 %
26.10.2021 08:42 11,0 C 10,6 C 10,0 C 95 % 1020,7 hPa 0,0 l/m 0 min 0 min 7 W/m 3,2 km/h (1 Bft) 95,65 %
26.10.2021 08:44 11,0 C 10,6 C 10,0 C 95 % 1020,7 hPa 0,0 l/m 0 min 0 min 8 W/m 9,7 km/h (2 Bft) 95,74 %
26.10.2021 08:46 11,0 C 10,6 C 10,0 C 95 % 1020,7 hPa 0,0 l/m 0 min 0 min 11 W/m 6,4 km/h (2 Bft) 95,74 %
26.10.2021 08:48 11,0 C 10,6 C 10,0 C 95 % 1020,8 hPa 0,0 l/m 0 min 0 min 11 W/m 6,4 km/h (2 Bft) 93,62 %
26.10.2021 08:50 11,0 C 10,6 C 10,0 C 95 % 1020,8 hPa 0,0 l/m 0 min 0 min 12 W/m 16,1 km/h (3 Bft) 95,74 %
26.10.2021 08:52 11,0 C 10,6 C 10,0 C 95 % 1020,9 hPa 0,0 l/m 0 min 0 min 13 W/m 6,4 km/h (2 Bft) 95,74 %
26.10.2021 08:54 11,0 C 10,6 C 10,0 C 95 % 1020,9 hPa 0,0 l/m 0 min 0 min 14 W/m 3,2 km/h (1 Bft) 95,65 %
26.10.2021 08:56 11,0 C 10,6 C 10,0 C 95 % 1020,9 hPa 0,0 l/m 0 min 0 min 13 W/m 3,2 km/h (1 Bft) 95,74 %
26.10.2021 08:58 11,0 C 10,6 C 10,0 C 95 % 1020,9 hPa 0,0 l/m 0 min 0 min 12 W/m 16,1 km/h (3 Bft) 95,74 %
26.10.2021 09:00 11,0 C 10,6 C 10,0 C 95 % 1020,9 hPa 0,0 l/m 0 min 0 min 15 W/m 16,1 km/h (3 Bft) 97,87 %
26.10.2021 09:02 11,0 C 10,6 C 10,0 C 95 % 1020,9 hPa 0,0 l/m 0 min 0 min 18 W/m 12,9 km/h (3 Bft) 95,74 %
26.10.2021 09:04 11,0 C 10,6 C 10,0 C 95 % 1021,0 hPa 0,0 l/m 0 min 0 min 19 W/m 12,9 km/h (3 Bft) 97,87 %
26.10.2021 09:06 11,0 C 10,6 C 10,0 C 95 % 1021,0 hPa 0,0 l/m 0 min 0 min 19 W/m 12,9 km/h (3 Bft) 100,00 %
26.10.2021 09:08 11,0 C 10,6 C 10,0 C 95 % 1021,0 hPa 0,0 l/m 0 min 0 min 20 W/m 12,9 km/h (3 Bft) 100,00 %
26.10.2021 09:10 11,0 C 10,6 C 10,0 C 95 % 1021,0 hPa 0,0 l/m 0 min 0 min 25 W/m 16,1 km/h (3 Bft) 95,74 %
26.10.2021 09:12 11,0 C 10,6 C 10,0 C 95 % 1021,0 hPa 0,0 l/m 0 min 0 min 24 W/m 9,7 km/h (2 Bft) 100,00 %
26.10.2021 09:14 11,0 C 10,6 C 10,0 C 95 % 1021,0 hPa 0,0 l/m 0 min 0 min 25 W/m 9,7 km/h (2 Bft) 100,00 %
26.10.2021 09:16 11,0 C 10,6 C 10,0 C 95 % 1021,0 hPa 0,0 l/m 0 min 0 min 27 W/m 6,4 km/h (2 Bft) 100,00 %
26.10.2021 09:18 11,0 C 10,6 C 10,0 C 95 % 1021,0 hPa 0,0 l/m 0 min 0 min 28 W/m 12,9 km/h (3 Bft) 100,00 %
26.10.2021 09:20 11,1 C 10,6 C 10,0 C 95 % 1021,0 hPa 0,0 l/m 0 min 0 min 30 W/m 9,7 km/h (2 Bft) 97,87 %
26.10.2021 09:22 11,1 C 10,6 C 10,0 C 95 % 1021,0 hPa 0,0 l/m 0 min 0 min 29 W/m 12,9 km/h (3 Bft) 95,74 %
26.10.2021 09:24 11,1 C 10,6 C 10,0 C 95 % 1021,0 hPa 0,0 l/m 0 min 0 min 26 W/m 3,2 km/h (1 Bft) 95,65 %
26.10.2021 09:26 11,1 C 10,6 C 10,0 C 95 % 1021,1 hPa 0,0 l/m 0 min 0 min 29 W/m 3,2 km/h (1 Bft) 97,87 %
26.10.2021 09:28 11,1 C 10,6 C 10,0 C 95 % 1021,1 hPa 0,0 l/m 0 min 0 min 28 W/m 3,2 km/h (1 Bft) 97,87 %
26.10.2021 09:30 11,1 C 10,6 C 10,0 C 95 % 1021,1 hPa 0,0 l/m 0 min 0 min 32 W/m 3,2 km/h (1 Bft) 97,87 %
26.10.2021 09:32 11,1 C 11,1 C 10,0 C 95 % 1021,1 hPa 0,0 l/m 0 min 0 min 34 W/m 6,4 km/h (2 Bft) 97,87 %
26.10.2021 09:34 11,1 C 11,1 C 10,0 C 95 % 1021,1 hPa 0,0 l/m 0 min 0 min 35 W/m 12,9 km/h (3 Bft) 97,87 %
26.10.2021 09:36 11,1 C 11,1 C 10,0 C 94 % 1021,1 hPa 0,0 l/m 0 min 0 min 41 W/m 6,4 km/h (2 Bft) 97,83 %
26.10.2021 09:38 11,1 C 11,1 C 10,0 C 94 % 1021,1 hPa 0,0 l/m 0 min 0 min 39 W/m 6,4 km/h (2 Bft) 95,74 %
26.10.2021 09:40 11,2 C 11,1 C 10,0 C 94 % 1021,1 hPa 0,0 l/m 0 min 0 min 46 W/m 6,4 km/h (2 Bft) 97,87 %
26.10.2021 09:42 11,2 C 11,1 C 10,0 C 94 % 1021,2 hPa 0,0 l/m 0 min 0 min 60 W/m 6,4 km/h (2 Bft) 97,87 %
26.10.2021 09:44 11,3 C 11,1 C 10,6 C 94 % 1021,1 hPa 0,0 l/m 0 min 0 min 58 W/m 12,9 km/h (3 Bft) 97,87 %
26.10.2021 09:46 11,3 C 11,1 C 10,6 C 95 % 1021,2 hPa 0,0 l/m 0 min 0 min 48 W/m 16,1 km/h (3 Bft) 97,83 %
26.10.2021 09:48 11,3 C 11,1 C 10,6 C 95 % 1021,1 hPa 0,0 l/m 0 min 0 min 47 W/m 12,9 km/h (3 Bft) 97,87 %
26.10.2021 09:50 11,3 C 11,1 C 10,6 C 95 % 1021,2 hPa 0,0 l/m 0 min 0 min 47 W/m 6,4 km/h (2 Bft) 97,87 %
26.10.2021 09:52 11,3 C 11,1 C 10,6 C 95 % 1021,2 hPa 0,0 l/m 0 min 0 min 48 W/m 6,4 km/h (2 Bft) 97,87 %
26.10.2021 09:54 11,4 C 11,1 C 10,6 C 94 % 1021,3 hPa 0,0 l/m 0 min 0 min 54 W/m 6,4 km/h (2 Bft) 95,74 %
26.10.2021 09:56 11,4 C 11,1 C 10,6 C 94 % 1021,3 hPa 0,0 l/m 0 min 0 min 60 W/m 9,7 km/h (2 Bft) 97,87 %
26.10.2021 09:58 11,4 C 11,1 C 10,6 C 94 % 1021,3 hPa 0,0 l/m 0 min 0 min 59 W/m 9,7 km/h (2 Bft) 97,87 %
26.10.2021 10:00 11,4 C 11,1 C 10,6 C 94 % 1021,3 hPa 0,0 l/m 0 min 0 min 61 W/m 3,2 km/h (1 Bft) 97,83 %
26.10.2021 10:02 11,4 C 11,1 C 10,6 C 94 % 1021,3 hPa 0,0 l/m 0 min 0 min 54 W/m 12,9 km/h (3 Bft) 97,87 %
26.10.2021 10:04 11,4 C 11,1 C 10,6 C 94 % 1021,3 hPa 0,0 l/m 0 min 0 min 65 W/m 12,9 km/h (3 Bft) 97,87 %
26.10.2021 10:06 11,5 C 11,1 C 10,6 C 94 % 1021,3 hPa 0,0 l/m 0 min 0 min 59 W/m 12,9 km/h (3 Bft) 97,87 %
26.10.2021 10:08 11,5 C 11,1 C 10,6 C 94 % 1021,3 hPa 0,0 l/m 0 min 0 min 64 W/m 16,1 km/h (3 Bft) 97,87 %
26.10.2021 10:10 11,5 C 11,1 C 10,6 C 94 % 1021,3 hPa 0,0 l/m 0 min 0 min 56 W/m 12,9 km/h (3 Bft) 97,83 %
26.10.2021 10:12 11,5 C 11,1 C 10,6 C 94 % 1021,4 hPa 0,0 l/m 0 min 0 min 70 W/m 6,4 km/h (2 Bft) 100,00 %
26.10.2021 10:14 11,5 C 11,7 C 10,6 C 94 % 1021,4 hPa 0,0 l/m 0 min 0 min 70 W/m 9,7 km/h (2 Bft) 100,00 %
26.10.2021 10:16 11,5 C 11,7 C 10,6 C 94 % 1021,5 hPa 0,0 l/m 0 min 0 min 75 W/m 16,1 km/h (3 Bft) 100,00 %
26.10.2021 10:18 11,5 C 11,7 C 10,6 C 94 % 1021,4 hPa 0,0 l/m 0 min 0 min 73 W/m 12,9 km/h (3 Bft) 100,00 %
26.10.2021 10:20 11,5 C 11,7 C 10,6 C 94 % 1021,5 hPa 0,0 l/m 0 min 0 min 71 W/m 16,1 km/h (3 Bft) 100,00 %
26.10.2021 10:22 11,5 C 11,7 C 10,6 C 94 % 1021,5 hPa 0,0 l/m 0 min 0 min 71 W/m 6,4 km/h (2 Bft) 97,83 %
26.10.2021 10:24 11,6 C 11,7 C 10,6 C 94 % 1021,5 hPa 0,0 l/m 0 min 0 min 68 W/m 6,4 km/h (2 Bft) 100,00 %
26.10.2021 10:26 11,6 C 11,7 C 10,6 C 93 % 1021,5 hPa 0,0 l/m 0 min 0 min 69 W/m 22,5 km/h (4 Bft) 100,00 %
26.10.2021 10:28 11,6 C 11,7 C 10,6 C 93 % 1021,5 hPa 0,0 l/m 0 min 0 min 67 W/m 16,1 km/h (3 Bft) 97,87 %
26.10.2021 10:30 11,6 C 11,7 C 10,6 C 93 % 1021,4 hPa 0,0 l/m 0 min 0 min 61 W/m 16,1 km/h (3 Bft) 97,87 %
26.10.2021 10:32 11,6 C 11,7 C 10,6 C 93 % 1021,5 hPa 0,0 l/m 0 min 0 min 61 W/m 16,1 km/h (3 Bft) 97,87 %
26.10.2021 10:34 11,6 C 11,7 C 10,6 C 93 % 1021,4 hPa 0,0 l/m 0 min 0 min 61 W/m 12,9 km/h (3 Bft) 97,83 %
26.10.2021 10:36 11,7 C 11,7 C 10,6 C 93 % 1021,4 hPa 0,0 l/m 0 min 0 min 71 W/m 12,9 km/h (3 Bft) 97,87 %
26.10.2021 10:38 11,7 C 11,7 C 10,6 C 93 % 1021,4 hPa 0,0 l/m 0 min 0 min 81 W/m 12,9 km/h (3 Bft) 97,87 %
26.10.2021 10:40 11,7 C 11,7 C 10,6 C 93 % 1021,4 hPa 0,0 l/m 0 min 0 min 84 W/m 6,4 km/h (2 Bft) 95,74 %
26.10.2021 10:42 11,7 C 11,7 C 10,6 C 93 % 1021,4 hPa 0,0 l/m 0 min 0 min 95 W/m 22,5 km/h (4 Bft) 95,74 %
26.10.2021 10:44 11,8 C 11,7 C 10,6 C 93 % 1021,4 hPa 0,0 l/m 0 min 0 min 85 W/m 12,9 km/h (3 Bft) 97,87 %
26.10.2021 10:46 11,8 C 11,7 C 10,6 C 93 % 1021,4 hPa 0,0 l/m 0 min 0 min 82 W/m 6,4 km/h (2 Bft) 97,83 %
26.10.2021 10:48 11,8 C 11,7 C 10,6 C 93 % 1021,4 hPa 0,0 l/m 0 min 0 min 78 W/m 3,2 km/h (1 Bft) 95,74 %
26.10.2021 10:50 11,8 C 11,7 C 11,1 C 93 % 1021,4 hPa 0,0 l/m 0 min 0 min 86 W/m 16,1 km/h (3 Bft) 97,87 %
26.10.2021 10:52 11,8 C 11,7 C 11,1 C 93 % 1021,4 hPa 0,0 l/m 0 min 0 min 94 W/m 6,4 km/h (2 Bft) 93,62 %
26.10.2021 10:54 11,9 C 11,7 C 11,1 C 92 % 1021,4 hPa 0,0 l/m 0 min 0 min 110 W/m 12,9 km/h (3 Bft) 97,87 %
26.10.2021 10:56 11,9 C 12,2 C 11,1 C 92 % 1021,4 hPa 0,0 l/m 0 min 0 min 109 W/m 12,9 km/h (3 Bft) 97,87 %
26.10.2021 10:58 11,9 C 12,2 C 11,1 C 92 % 1021,4 hPa 0,0 l/m 0 min 0 min 122 W/m 19,3 km/h (3 Bft) 97,83 %
26.10.2021 11:00 11,9 C 12,2 C 11,1 C 92 % 1021,4 hPa 0,0 l/m 0 min 0 min 110 W/m 6,4 km/h (2 Bft) 97,87 %
26.10.2021 11:02 12,0 C 12,2 C 11,1 C 92 % 1021,4 hPa 0,0 l/m 0 min 0 min 114 W/m 19,3 km/h (3 Bft) 97,87 %
26.10.2021 11:04 12,0 C 12,2 C 11,1 C 92 % 1021,4 hPa 0,0 l/m 0 min 0 min 108 W/m 6,4 km/h (2 Bft) 97,87 %
26.10.2021 11:06 12,0 C 12,2 C 11,1 C 92 % 1021,4 hPa 0,0 l/m 0 min 0 min 109 W/m 12,9 km/h (3 Bft) 97,87 %
26.10.2021 11:08 12,0 C 12,2 C 11,1 C 92 % 1021,4 hPa 0,0 l/m 0 min 0 min 138 W/m 16,1 km/h (3 Bft) 95,74 %
26.10.2021 11:10 12,1 C 12,2 C 11,1 C 92 % 1021,3 hPa 0,0 l/m 0 min 0 min 151 W/m 12,9 km/h (3 Bft) 97,96 %
26.10.2021 11:12 12,1 C 12,2 C 11,1 C 92 % 1021,4 hPa 0,0 l/m 0 min 0 min 144 W/m 19,3 km/h (3 Bft) 95,74 %
26.10.2021 11:14 12,1 C 12,2 C 11,1 C 91 % 1021,4 hPa 0,0 l/m 0 min 0 min 126 W/m 19,3 km/h (3 Bft) 97,87 %
26.10.2021 11:16 12,1 C 12,2 C 11,1 C 91 % 1021,4 hPa 0,0 l/m 0 min 0 min 138 W/m 22,5 km/h (4 Bft) 97,87 %
26.10.2021 11:18 12,2 C 12,2 C 11,1 C 91 % 1021,4 hPa 0,0 l/m 0 min 0 min 155 W/m 22,5 km/h (4 Bft) 97,87 %
26.10.2021 11:20 12,2 C 12,2 C 11,1 C 91 % 1021,4 hPa 0,0 l/m 0 min 0 min 137 W/m 19,3 km/h (3 Bft) 97,83 %
26.10.2021 11:22 12,3 C 12,2 C 11,1 C 91 % 1021,5 hPa 0,0 l/m 0 min 0 min 157 W/m 22,5 km/h (4 Bft) 97,87 %
26.10.2021 11:24 12,3 C 12,2 C 11,1 C 90 % 1021,5 hPa 0,0 l/m 0 min 0 min 120 W/m 16,1 km/h (3 Bft) 97,87 %
26.10.2021 11:26 12,3 C 12,2 C 11,1 C 90 % 1021,5 hPa 0,0 l/m 0 min 0 min 133 W/m 16,1 km/h (3 Bft) 95,74 %
26.10.2021 11:28 12,3 C 12,2 C 11,1 C 90 % 1021,5 hPa 0,0 l/m 0 min 0 min 106 W/m 22,5 km/h (4 Bft) 95,74 %
26.10.2021 11:30 12,3 C 12,2 C 11,1 C 90 % 1021,4 hPa 0,0 l/m 0 min 0 min 136 W/m 22,5 km/h (4 Bft) 97,87 %
26.10.2021 11:32 12,3 C 12,2 C 11,1 C 90 % 1021,4 hPa 0,0 l/m 0 min 0 min 145 W/m 22,5 km/h (4 Bft) 97,83 %
26.10.2021 11:34 12,3 C 12,2 C 11,1 C 90 % 1021,4 hPa 0,0 l/m 0 min 0 min 143 W/m 16,1 km/h (3 Bft) 97,87 %
26.10.2021 11:36 12,4 C 12,8 C 11,1 C 90 % 1021,5 hPa 0,0 l/m 0 min 0 min 143 W/m 9,7 km/h (2 Bft) 97,87 %
26.10.2021 11:38 12,4 C 12,8 C 11,7 C 90 % 1021,4 hPa 0,0 l/m 0 min 0 min 164 W/m 22,5 km/h (4 Bft) 97,87 %
26.10.2021 11:40 12,5 C 12,8 C 11,7 C 90 % 1021,3 hPa 0,0 l/m 0 min 0 min 176 W/m 12,9 km/h (3 Bft) 97,87 %
26.10.2021 11:42 12,5 C 12,8 C 11,7 C 90 % 1021,4 hPa 0,0 l/m 0 min 0 min 163 W/m 16,1 km/h (3 Bft) 95,74 %
26.10.2021 11:44 12,5 C 12,8 C 11,7 C 89 % 1021,4 hPa 0,0 l/m 0 min 0 min 186 W/m 19,3 km/h (3 Bft) 97,83 %
26.10.2021 11:46 12,5 C 12,8 C 11,7 C 89 % 1021,4 hPa 0,0 l/m 2 min 0 min 196 W/m 19,3 km/h (3 Bft) 100,00 %
26.10.2021 11:48 12,6 C 13,3 C 11,7 C 89 % 1021,4 hPa 0,0 l/m 2 min 0 min 222 W/m 12,9 km/h (3 Bft) 100,00 %
26.10.2021 11:50 12,6 C 13,9 C 12,3 C 89 % 1021,4 hPa 0,0 l/m 2 min 0 min 260 W/m 9,7 km/h (2 Bft) 100,00 %
26.10.2021 11:52 12,8 C 13,9 C 12,3 C 89 % 1021,4 hPa 0,0 l/m 2 min 0 min 237 W/m 16,1 km/h (3 Bft) 97,87 %
26.10.2021 11:54 12,8 C 13,9 C 12,3 C 89 % 1021,4 hPa 0,0 l/m 2 min 0 min 214 W/m 16,1 km/h (3 Bft) 100,00 %
26.10.2021 11:56 12,9 C 13,9 C 12,3 C 89 % 1021,4 hPa 0,0 l/m 0 min 0 min 186 W/m 12,9 km/h (3 Bft) 100,00 %
26.10.2021 11:58 12,9 C 13,9 C 12,3 C 88 % 1021,4 hPa 0,0 l/m 0 min 0 min 124 W/m 16,1 km/h (3 Bft) 100,00 %
26.10.2021 12:00 12,9 C 13,3 C 12,3 C 88 % 1021,4 hPa 0,0 l/m 0 min 0 min 158 W/m 19,3 km/h (3 Bft) 100,00 %
26.10.2021 12:02 12,9 C 13,3 C 12,3 C 88 % 1021,4 hPa 0,0 l/m 0 min 0 min 155 W/m 16,1 km/h (3 Bft) 97,92 %
26.10.2021 12:04 13,0 C 13,9 C 12,3 C 87 % 1021,5 hPa 0,0 l/m 0 min 0 min 162 W/m 12,9 km/h (3 Bft) 97,87 %
26.10.2021 12:06 13,0 C 13,9 C 12,3 C 87 % 1021,4 hPa 0,0 l/m 0 min 0 min 140 W/m 16,1 km/h (3 Bft) 97,87 %
26.10.2021 12:08 13,0 C 13,3 C 12,3 C 87 % 1021,5 hPa 0,0 l/m 0 min 0 min 131 W/m 12,9 km/h (3 Bft) 100,00 %
26.10.2021 12:10 13,0 C 13,3 C 12,3 C 87 % 1021,5 hPa 0,0 l/m 0 min 0 min 133 W/m 19,3 km/h (3 Bft) 100,00 %
26.10.2021 12:12 13,1 C 13,3 C 12,3 C 87 % 1021,5 hPa 0,0 l/m 0 min 0 min 110 W/m 16,1 km/h (3 Bft) 97,87 %
26.10.2021 12:14 13,1 C 13,3 C 12,3 C 87 % 1021,5 hPa 0,0 l/m 0 min 0 min 155 W/m 12,9 km/h (3 Bft) 97,87 %
26.10.2021 12:16 13,1 C 13,3 C 12,3 C 87 % 1021,5 hPa 0,0 l/m 0 min 0 min 194 W/m 19,3 km/h (3 Bft) 100,00 %
26.10.2021 12:18 13,1 C 13,3 C 12,3 C 87 % 1021,6 hPa 0,0 l/m 0 min 0 min 162 W/m 12,9 km/h (3 Bft) 100,00 %
26.10.2021 12:20 13,2 C 13,3 C 12,3 C 87 % 1021,5 hPa 0,0 l/m 0 min 0 min 174 W/m 6,4 km/h (2 Bft) 100,00 %
26.10.2021 12:22 13,3 C 13,3 C 12,3 C 87 % 1021,5 hPa 0,0 l/m 0 min 0 min 153 W/m 9,7 km/h (2 Bft) 100,00 %
26.10.2021 12:24 13,3 C 13,9 C 12,3 C 87 % 1021,5 hPa 0,0 l/m 0 min 0 min 168 W/m 6,4 km/h (2 Bft) 97,87 %
26.10.2021 12:26 13,4 C 13,9 C 12,3 C 87 % 1021,6 hPa 0,0 l/m 0 min 0 min 174 W/m 16,1 km/h (3 Bft) 97,87 %
26.10.2021 12:28 13,4 C 13,9 C 12,3 C 87 % 1021,5 hPa 0,0 l/m 0 min 0 min 182 W/m 9,7 km/h (2 Bft) 97,87 %
26.10.2021 12:30 13,4 C 13,9 C 12,3 C 86 % 1021,5 hPa 0,0 l/m 0 min 0 min 207 W/m 22,5 km/h (4 Bft) 97,83 %
26.10.2021 12:32 13,5 C 13,9 C 12,3 C 86 % 1021,4 hPa 0,0 l/m 0 min 0 min 191 W/m 25,7 km/h (4 Bft) 97,92 %
26.10.2021 12:34 13,5 C 13,9 C 12,3 C 86 % 1021,5 hPa 0,0 l/m 0 min 0 min 147 W/m 16,1 km/h (3 Bft) 97,87 %
26.10.2021 12:36 13,6 C 13,9 C 12,3 C 86 % 1021,5 hPa 0,0 l/m 0 min 0 min 136 W/m 12,9 km/h (3 Bft) 93,62 %
26.10.2021 12:38 13,6 C 13,9 C 12,3 C 85 % 1021,5 hPa 0,0 l/m 0 min 0 min 150 W/m 12,9 km/h (3 Bft) 95,74 %
26.10.2021 12:40 13,6 C 13,9 C 12,3 C 85 % 1021,5 hPa 0,0 l/m 0 min 0 min 172 W/m 6,4 km/h (2 Bft) 95,74 %
26.10.2021 12:42 13,7 C 13,9 C 12,3 C 85 % 1021,5 hPa 0,0 l/m 0 min 0 min 144 W/m 16,1 km/h (3 Bft) 95,65 %
26.10.2021 12:44 13,7 C 13,9 C 12,3 C 85 % 1021,5 hPa 0,0 l/m 0 min 0 min 163 W/m 22,5 km/h (4 Bft) 95,74 %
26.10.2021 12:46 13,8 C 13,9 C 12,3 C 84 % 1021,5 hPa 0,0 l/m 0 min 0 min 188 W/m 25,7 km/h (4 Bft) 95,74 %
26.10.2021 12:48 13,9 C 14,4 C 12,8 C 84 % 1021,5 hPa 0,0 l/m 0 min 0 min 179 W/m 19,3 km/h (3 Bft) 95,74 %
26.10.2021 12:50 14,0 C 14,4 C 12,8 C 84 % 1021,5 hPa 0,0 l/m 0 min 0 min 195 W/m 25,7 km/h (4 Bft) 95,74 %
26.10.2021 12:52 14,0 C 14,4 C 12,8 C 84 % 1021,5 hPa 0,0 l/m 0 min 0 min 191 W/m 22,5 km/h (4 Bft) 95,74 %
26.10.2021 12:54 14,2 C 14,4 C 12,8 C 84 % 1021,5 hPa 0,0 l/m 0 min 0 min 166 W/m 19,3 km/h (3 Bft) 95,65 %
26.10.2021 12:56 14,2 C 14,4 C 12,8 C 83 % 1021,5 hPa 0,0 l/m 0 min 0 min 138 W/m 16,1 km/h (3 Bft) 95,74 %
26.10.2021 12:58 14,2 C 14,4 C 12,8 C 83 % 1021,5 hPa 0,0 l/m 0 min 0 min 150 W/m 16,1 km/h (3 Bft) 93,62 %
26.10.2021 13:00 14,3 C 14,4 C 12,8 C 83 % 1021,5 hPa 0,0 l/m 0 min 0 min 173 W/m 19,3 km/h (3 Bft) 95,74 %
26.10.2021 13:02 14,4 C 15,0 C 12,8 C 82 % 1021,5 hPa 0,0 l/m 0 min 0 min 188 W/m 25,7 km/h (4 Bft) 95,74 %
26.10.2021 13:04 14,4 C 14,4 C 12,8 C 82 % 1021,5 hPa 0,0 l/m 0 min 0 min 190 W/m 22,5 km/h (4 Bft) 93,62 %
26.10.2021 13:06 14,4 C 14,4 C 12,8 C 82 % 1021,5 hPa 0,0 l/m 0 min 0 min 164 W/m 16,1 km/h (3 Bft) 91,30 %
26.10.2021 13:08 14,4 C 14,4 C 12,8 C 82 % 1021,5 hPa 0,0 l/m 0 min 0 min 201 W/m 22,5 km/h (4 Bft) 93,62 %
26.10.2021 13:10 14,4 C 14,4 C 12,8 C 82 % 1021,4 hPa 0,0 l/m 0 min 0 min 170 W/m 16,1 km/h (3 Bft) 97,87 %
26.10.2021 13:12 14,3 C 14,4 C 12,8 C 81 % 1021,5 hPa 0,0 l/m 0 min 0 min 158 W/m 12,9 km/h (3 Bft) 95,74 %
26.10.2021 13:14 14,3 C 14,4 C 12,8 C 82 % 1021,5 hPa 0,0 l/m 0 min 0 min 163 W/m 12,9 km/h (3 Bft) 97,87 %
26.10.2021 13:16 14,2 C 14,4 C 12,8 C 82 % 1021,6 hPa 0,0 l/m 0 min 0 min 186 W/m 12,9 km/h (3 Bft) 97,87 %
26.10.2021 13:18 14,2 C 14,4 C 12,8 C 82 % 1021,5 hPa 0,0 l/m 0 min 0 min 183 W/m 12,9 km/h (3 Bft) 97,83 %
26.10.2021 13:20 14,2 C 14,4 C 12,8 C 82 % 1021,5 hPa 0,0 l/m 0 min 0 min 166 W/m 19,3 km/h (3 Bft) 100,00 %
26.10.2021 13:22 14,2 C 13,9 C 12,8 C 82 % 1021,5 hPa 0,0 l/m 0 min 0 min 155 W/m 19,3 km/h (3 Bft) 100,00 %
26.10.2021 13:24 14,2 C 13,9 C 12,3 C 82 % 1021,5 hPa 0,0 l/m 0 min 0 min 171 W/m 19,3 km/h (3 Bft) 100,00 %
26.10.2021 13:26 14,2 C 13,9 C 12,3 C 82 % 1021,5 hPa 0,0 l/m 0 min 0 min 195 W/m 19,3 km/h (3 Bft) 100,00 %
26.10.2021 13:28 14,1 C 13,9 C 12,3 C 82 % 1021,5 hPa 0,0 l/m 0 min 0 min 177 W/m 16,1 km/h (3 Bft) 100,00 %
26.10.2021 13:30 14,1 C 14,4 C 12,3 C 82 % 1021,4 hPa 0,0 l/m 0 min 0 min 188 W/m 19,3 km/h (3 Bft) 100,00 %
26.10.2021 13:32 14,2 C 14,4 C 12,3 C 82 % 1021,4 hPa 0,0 l/m 0 min 0 min 175 W/m 12,9 km/h (3 Bft) 100,00 %
26.10.2021 13:34 14,2 C 14,4 C 12,3 C 82 % 1021,4 hPa 0,0 l/m 0 min 0 min 167 W/m 19,3 km/h (3 Bft) 97,87 %
26.10.2021 13:36 14,2 C 14,4 C 12,3 C 82 % 1021,4 hPa 0,0 l/m 0 min 0 min 205 W/m 25,7 km/h (4 Bft) 97,87 %
26.10.2021 13:38 14,2 C 14,4 C 12,3 C 81 % 1021,4 hPa 0,0 l/m 0 min 0 min 218 W/m 32,2 km/h (5 Bft) 97,87 %
26.10.2021 13:40 14,2 C 14,4 C 12,3 C 81 % 1021,4 hPa 0,0 l/m 0 min 0 min 187 W/m 25,7 km/h (4 Bft) 97,87 %
26.10.2021 13:42 14,2 C 13,9 C 12,3 C 81 % 1021,4 hPa 0,0 l/m 0 min 0 min 168 W/m 35,4 km/h (5 Bft) 95,65 %
26.10.2021 13:44 14,1 C 13,9 C 12,3 C 81 % 1021,3 hPa 0,0 l/m 0 min 0 min 120 W/m 32,2 km/h (5 Bft) 97,87 %
26.10.2021 13:46 14,1 C 13,9 C 12,3 C 81 % 1021,4 hPa 0,0 l/m 0 min 0 min 126 W/m 29,0 km/h (5 Bft) 97,87 %
26.10.2021 13:48 14,0 C 13,9 C 12,3 C 81 % 1021,3 hPa 0,0 l/m 0 min 0 min 178 W/m 19,3 km/h (3 Bft) 100,00 %
26.10.2021 13:50 14,0 C 14,4 C 12,3 C 82 % 1021,3 hPa 0,0 l/m 2 min 0 min 239 W/m 16,1 km/h (3 Bft) 97,87 %
26.10.2021 13:52 14,0 C 15,0 C 12,3 C 81 % 1021,3 hPa 0,0 l/m 0 min 0 min 180 W/m 25,7 km/h (4 Bft) 95,65 %
26.10.2021 13:54 14,0 C 14,4 C 12,3 C 82 % 1021,3 hPa 0,0 l/m 0 min 0 min 133 W/m 16,1 km/h (3 Bft) 97,87 %
26.10.2021 13:56 14,0 C 14,4 C 12,3 C 82 % 1021,3 hPa 0,0 l/m 0 min 0 min 170 W/m 6,4 km/h (2 Bft) 97,87 %
26.10.2021 13:58 14,1 C 17,2 C 12,3 C 82 % 1021,3 hPa 0,0 l/m 2 min 0 min 367 W/m 19,3 km/h (3 Bft) 97,87 %
26.10.2021 14:00 14,2 C 19,4 C 12,3 C 82 % 1021,3 hPa 0,0 l/m 2 min 0 min 470 W/m 12,9 km/h (3 Bft) 95,74 %
26.10.2021 14:02 14,2 C 20,0 C 12,3 C 82 % 1021,2 hPa 0,0 l/m 2 min 0 min 467 W/m 22,5 km/h (4 Bft) 97,92 %
26.10.2021 14:04 14,4 C 19,4 C 12,3 C 81 % 1021,2 hPa 0,0 l/m 2 min 0 min 481 W/m 45,1 km/h (6 Bft) 97,83 %
26.10.2021 14:06 14,5 C 19,4 C 12,3 C 81 % 1021,3 hPa 0,0 l/m 2 min 0 min 481 W/m 19,3 km/h (3 Bft) 95,74 %
26.10.2021 14:08 14,6 C 18,9 C 12,8 C 80 % 1021,3 hPa 0,0 l/m 2 min 0 min 568 W/m 25,7 km/h (4 Bft) 97,87 %
26.10.2021 14:10 14,8 C 18,3 C 12,8 C 80 % 1021,3 hPa 0,0 l/m 2 min 0 min 592 W/m 22,5 km/h (4 Bft) 97,87 %
26.10.2021 14:12 14,8 C 16,1 C 12,8 C 79 % 1021,2 hPa 0,0 l/m 2 min 0 min 320 W/m 35,4 km/h (5 Bft) 97,87 %
26.10.2021 14:14 14,8 C 15,0 C 12,8 C 79 % 1021,2 hPa 0,0 l/m 0 min 0 min 167 W/m 19,3 km/h (3 Bft) 95,74 %
26.10.2021 14:16 14,6 C 14,4 C 12,3 C 79 % 1021,2 hPa 0,0 l/m 0 min 0 min 139 W/m 25,7 km/h (4 Bft) 97,83 %
26.10.2021 14:18 14,6 C 14,4 C 12,3 C 79 % 1021,2 hPa 0,0 l/m 0 min 0 min 145 W/m 22,5 km/h (4 Bft) 97,87 %
26.10.2021 14:20 14,5 C 14,4 C 12,3 C 79 % 1021,2 hPa 0,0 l/m 0 min 0 min 166 W/m 22,5 km/h (4 Bft) 100,00 %
26.10.2021 14:22 14,5 C 15,0 C 12,3 C 79 % 1021,2 hPa 0,0 l/m 2 min 0 min 231 W/m 19,3 km/h (3 Bft) 100,00 %
26.10.2021 14:24 14,6 C 15,0 C 12,8 C 79 % 1021,2 hPa 0,0 l/m 2 min 0 min 557 W/m 22,5 km/h (4 Bft) 100,00 %
26.10.2021 14:26 14,6 C 15,0 C 12,8 C 79 % 1021,2 hPa 0,0 l/m 2 min 0 min 537 W/m 16,1 km/h (3 Bft) 100,00 %
26.10.2021 14:28 14,8 C 15,0 C 12,8 C 80 % 1021,3 hPa 0,0 l/m 2 min 0 min 352 W/m 22,5 km/h (4 Bft) 100,00 %
26.10.2021 14:30 14,8 C 15,0 C 12,8 C 80 % 1021,3 hPa 0,0 l/m 2 min 0 min 327 W/m 19,3 km/h (3 Bft) 97,87 %
26.10.2021 14:32 14,9 C 15,0 C 12,8 C 79 % 1021,3 hPa 0,0 l/m 0 min 0 min 196 W/m 25,7 km/h (4 Bft) 100,00 %
26.10.2021 14:34 14,8 C 14,4 C 12,8 C 79 % 1021,4 hPa 0,0 l/m 0 min 0 min 150 W/m 19,3 km/h (3 Bft) 100,00 %
26.10.2021 14:36 14,8 C 14,4 C 12,8 C 79 % 1021,4 hPa 0,0 l/m 0 min 0 min 133 W/m 25,7 km/h (4 Bft) 100,00 %
26.10.2021 14:38 14,8 C 14,4 C 12,3 C 79 % 1021,4 hPa 0,0 l/m 0 min 0 min 168 W/m 16,1 km/h (3 Bft) 100,00 %
26.10.2021 14:40 14,7 C 14,4 C 12,8 C 79 % 1021,4 hPa 0,0 l/m 0 min 0 min 185 W/m 19,3 km/h (3 Bft) 97,83 %
26.10.2021 14:42 14,6 C 14,4 C 12,3 C 80 % 1021,4 hPa 0,0 l/m 0 min 0 min 149 W/m 16,1 km/h (3 Bft) 100,00 %
26.10.2021 14:44 14,6 C 14,4 C 12,3 C 80 % 1021,4 hPa 0,0 l/m 0 min 0 min 155 W/m 29,0 km/h (5 Bft) 97,87 %
26.10.2021 14:46 14,6 C 14,4 C 12,3 C 80 % 1021,3 hPa 0,0 l/m 0 min 0 min 149 W/m 16,1 km/h (3 Bft) 100,00 %
26.10.2021 14:48 14,6 C 14,4 C 12,8 C 80 % 1021,3 hPa 0,0 l/m 0 min 0 min 148 W/m 16,1 km/h (3 Bft) 100,00 %
26.10.2021 14:50 14,6 C 15,0 C 12,8 C 80 % 1021,3 hPa 0,0 l/m 2 min 0 min 204 W/m 9,7 km/h (2 Bft) 100,00 %
26.10.2021 14:52 14,7 C 15,0 C 12,8 C 80 % 1021,2 hPa 0,0 l/m 2 min 0 min 207 W/m 12,9 km/h (3 Bft) 97,83 %
26.10.2021 14:54 14,7 C 15,0 C 12,8 C 80 % 1021,2 hPa 0,0 l/m 0 min 0 min 158 W/m 25,7 km/h (4 Bft) 97,87 %
26.10.2021 14:56 14,7 C 15,0 C 12,3 C 80 % 1021,2 hPa 0,0 l/m 0 min 0 min 145 W/m 19,3 km/h (3 Bft) 95,74 %
26.10.2021 14:58 14,7 C 15,0 C 12,3 C 80 % 1021,2 hPa 0,0 l/m 0 min 0 min 150 W/m 12,9 km/h (3 Bft) 95,74 %
26.10.2021 15:00 14,7 C 15,0 C 12,3 C 79 % 1021,2 hPa 0,0 l/m 2 min 0 min 361 W/m 22,5 km/h (4 Bft) 97,87 %
26.10.2021 15:02 14,7 C 15,0 C 12,3 C 79 % 1021,2 hPa 0,0 l/m 2 min 0 min 391 W/m 22,5 km/h (4 Bft) 97,22 %
26.10.2021 15:04 14,7 C 14,4 C 12,3 C 79 % 1021,2 hPa 0,0 l/m 2 min 0 min 287 W/m 19,3 km/h (3 Bft) 97,87 %
26.10.2021 15:06 14,7 C 14,4 C 12,3 C 79 % 1021,1 hPa 0,0 l/m 2 min 0 min 276 W/m 19,3 km/h (3 Bft) 97,83 %
26.10.2021 15:08 14,7 C 14,4 C 12,3 C 79 % 1021,1 hPa 0,0 l/m 2 min 0 min 290 W/m 12,9 km/h (3 Bft) 97,87 %
26.10.2021 15:10 14,8 C 15,0 C 12,3 C 79 % 1021,1 hPa 0,0 l/m 2 min 0 min 334 W/m 16,1 km/h (3 Bft) 97,87 %
26.10.2021 15:12 14,8 C 15,0 C 12,3 C 79 % 1021,0 hPa 0,0 l/m 2 min 0 min 342 W/m 19,3 km/h (3 Bft) 95,74 %
26.10.2021 15:14 14,8 C 15,0 C 12,3 C 78 % 1021,0 hPa 0,0 l/m 2 min 0 min 375 W/m 32,2 km/h (5 Bft) 97,87 %
26.10.2021 15:16 14,9 C 15,0 C 12,3 C 77 % 1021,0 hPa 0,0 l/m 2 min 0 min 405 W/m 32,2 km/h (5 Bft) 97,87 %
26.10.2021 15:18 14,9 C 15,6 C 12,3 C 76 % 1021,0 hPa 0,0 l/m 2 min 0 min 398 W/m 22,5 km/h (4 Bft) 97,87 %
26.10.2021 15:20 15,0 C 15,0 C 12,8 C 77 % 1020,9 hPa 0,0 l/m 2 min 0 min 288 W/m 35,4 km/h (5 Bft) 95,65 %
26.10.2021 15:22 14,9 C 15,0 C 12,3 C 76 % 1021,0 hPa 0,0 l/m 2 min 0 min 311 W/m 22,5 km/h (4 Bft) 97,87 %
26.10.2021 15:24 15,0 C 15,0 C 12,3 C 76 % 1021,0 hPa 0,0 l/m 2 min 0 min 321 W/m 22,5 km/h (4 Bft) 95,65 %
26.10.2021 15:26 15,0 C 15,0 C 12,3 C 76 % 1021,1 hPa 0,0 l/m 2 min 0 min 229 W/m 35,4 km/h (5 Bft) 97,87 %
26.10.2021 15:28 15,0 C 15,0 C 12,3 C 76 % 1021,1 hPa 0,0 l/m 2 min 0 min 197 W/m 29,0 km/h (5 Bft) 95,74 %
26.10.2021 15:30 14,9 C 14,4 C 12,3 C 76 % 1021,1 hPa 0,0 l/m 0 min 0 min 145 W/m 25,7 km/h (4 Bft) 97,83 %
26.10.2021 15:32 14,9 C 14,4 C 12,3 C 76 % 1021,0 hPa 0,0 l/m 0 min 0 min 117 W/m 16,1 km/h (3 Bft) 91,67 %
26.10.2021 15:34 14,8 C 14,4 C 12,3 C 77 % 1021,0 hPa 0,0 l/m 0 min 0 min 102 W/m 19,3 km/h (3 Bft) 100,00 %
26.10.2021 15:36 14,8 C 14,4 C 12,3 C 77 % 1021,0 hPa 0,0 l/m 0 min 0 min 116 W/m 25,7 km/h (4 Bft) 100,00 %
26.10.2021 15:38 14,8 C 14,4 C 12,3 C 77 % 1021,0 hPa 0,0 l/m 0 min 0 min 106 W/m 19,3 km/h (3 Bft) 97,87 %
26.10.2021 15:40 14,7 C 14,4 C 12,3 C 76 % 1021,1 hPa 0,0 l/m 0 min 0 min 112 W/m 35,4 km/h (5 Bft) 100,00 %
26.10.2021 15:42 14,6 C 14,4 C 12,3 C 76 % 1021,0 hPa 0,0 l/m 0 min 0 min 110 W/m 25,7 km/h (4 Bft) 100,00 %
26.10.2021 15:44 14,6 C 14,4 C 12,3 C 77 % 1020,9 hPa 0,0 l/m 0 min 0 min 100 W/m 12,9 km/h (3 Bft) 100,00 %
26.10.2021 15:46 14,6 C 14,4 C 12,3 C 77 % 1021,0 hPa 0,0 l/m 0 min 0 min 92 W/m 19,3 km/h (3 Bft) 97,87 %
26.10.2021 15:48 14,6 C 14,4 C 12,3 C 77 % 1021,0 hPa 0,0 l/m 0 min 0 min 115 W/m 16,1 km/h (3 Bft) 97,87 %
26.10.2021 15:50 14,6 C 14,4 C 12,3 C 78 % 1021,0 hPa 0,0 l/m 0 min 0 min 119 W/m 16,1 km/h (3 Bft) 97,87 %
26.10.2021 15:52 14,6 C 14,4 C 12,3 C 78 % 1021,1 hPa 0,0 l/m 0 min 0 min 101 W/m 22,5 km/h (4 Bft) 97,83 %
26.10.2021 15:54 14,6 C 14,4 C 12,3 C 78 % 1021,1 hPa 0,0 l/m 0 min 0 min 121 W/m 22,5 km/h (4 Bft) 95,74 %
26.10.2021 15:56 14,6 C 14,4 C 12,3 C 78 % 1021,1 hPa 0,0 l/m 0 min 0 min 143 W/m 25,7 km/h (4 Bft) 95,74 %
26.10.2021 15:58 14,6 C 14,4 C 12,3 C 78 % 1021,2 hPa 0,0 l/m 0 min 0 min 146 W/m 22,5 km/h (4 Bft) 95,74 %
26.10.2021 16:00 14,6 C 14,4 C 12,3 C 78 % 1021,2 hPa 0,0 l/m 2 min 0 min 238 W/m 16,1 km/h (3 Bft) 93,62 %
26.10.2021 16:02 14,7 C 15,0 C 12,3 C 78 % 1021,2 hPa 0,0 l/m 2 min 0 min 322 W/m 19,3 km/h (3 Bft) 97,87 %
26.10.2021 16:04 14,8 C 15,0 C 12,3 C 78 % 1021,2 hPa 0,0 l/m 2 min 0 min 315 W/m 16,1 km/h (3 Bft) 93,62 %
26.10.2021 16:06 14,9 C 15,6 C 12,8 C 78 % 1021,2 hPa 0,0 l/m 2 min 0 min 347 W/m 19,3 km/h (3 Bft) 95,74 %
26.10.2021 16:08 15,0 C 15,6 C 12,8 C 78 % 1021,3 hPa 0,0 l/m 2 min 0 min 340 W/m 19,3 km/h (3 Bft) 95,74 %
26.10.2021 16:10 15,0 C 15,6 C 12,8 C 77 % 1021,2 hPa 0,0 l/m 2 min 0 min 309 W/m 29,0 km/h (5 Bft) 93,62 %
26.10.2021 16:12 15,0 C 15,6 C 12,8 C 77 % 1021,2 hPa 0,0 l/m 2 min 0 min 275 W/m 12,9 km/h (3 Bft) 95,74 %
26.10.2021 16:14 15,1 C 15,6 C 12,3 C 77 % 1021,2 hPa 0,0 l/m 2 min 0 min 224 W/m 22,5 km/h (4 Bft) 95,65 %
26.10.2021 16:16 15,0 C 15,0 C 12,3 C 76 % 1021,2 hPa 0,0 l/m 2 min 0 min 171 W/m 29,0 km/h (5 Bft) 95,74 %
26.10.2021 16:18 15,0 C 15,0 C 12,3 C 76 % 1021,2 hPa 0,0 l/m 2 min 0 min 162 W/m 16,1 km/h (3 Bft) 93,62 %
26.10.2021 16:20 15,0 C 15,0 C 12,3 C 76 % 1021,2 hPa 0,0 l/m 0 min 0 min 121 W/m 22,5 km/h (4 Bft) 95,74 %
26.10.2021 16:22 14,9 C 14,4 C 12,3 C 77 % 1021,2 hPa 0,0 l/m 2 min 0 min 151 W/m 29,0 km/h (5 Bft) 93,62 %
26.10.2021 16:24 14,9 C 15,0 C 12,3 C 77 % 1021,2 hPa 0,0 l/m 2 min 0 min 181 W/m 19,3 km/h (3 Bft) 95,74 %
26.10.2021 16:26 14,9 C 15,0 C 12,3 C 77 % 1021,2 hPa 0,0 l/m 2 min 0 min 148 W/m 16,1 km/h (3 Bft) 95,65 %
26.10.2021 16:28 14,9 C 14,4 C 12,3 C 77 % 1021,2 hPa 0,0 l/m 2 min 0 min 134 W/m 22,5 km/h (4 Bft) 95,74 %
26.10.2021 16:30 14,9 C 14,4 C 12,3 C 77 % 1021,3 hPa 0,0 l/m 2 min 0 min 126 W/m 16,1 km/h (3 Bft) 93,62 %
26.10.2021 16:32 14,8 C 14,4 C 12,3 C 77 % 1021,3 hPa 0,0 l/m 2 min 0 min 131 W/m 22,5 km/h (4 Bft) 93,62 %
26.10.2021 16:34 14,8 C 14,4 C 12,3 C 77 % 1021,3 hPa 0,0 l/m 2 min 0 min 130 W/m 16,1 km/h (3 Bft) 95,74 %
26.10.2021 16:36 14,8 C 14,4 C 12,3 C 77 % 1021,4 hPa 0,0 l/m 0 min 0 min 110 W/m 16,1 km/h (3 Bft) 95,74 %
26.10.2021 16:38 14,8 C 14,4 C 12,3 C 77 % 1021,3 hPa 0,0 l/m 0 min 0 min 94 W/m 16,1 km/h (3 Bft) 97,83 %
26.10.2021 16:40 14,8 C 14,4 C 12,3 C 77 % 1021,3 hPa 0,0 l/m 0 min 0 min 106 W/m 19,3 km/h (3 Bft) 97,87 %
26.10.2021 16:42 14,7 C 14,4 C 12,3 C 77 % 1021,4 hPa 0,0 l/m 0 min 0 min 102 W/m 25,7 km/h (4 Bft) 100,00 %
26.10.2021 16:44 14,7 C 14,4 C 12,3 C 76 % 1021,3 hPa 0,0 l/m 0 min 0 min 93 W/m 16,1 km/h (3 Bft) 100,00 %
26.10.2021 16:46 14,6 C 14,4 C 12,3 C 77 % 1021,4 hPa 0,0 l/m 0 min 0 min 78 W/m 22,5 km/h (4 Bft) 100,00 %
26.10.2021 16:48 14,6 C 13,9 C 12,3 C 77 % 1021,3 hPa 0,0 l/m 0 min 0 min 71 W/m 16,1 km/h (3 Bft) 100,00 %
26.10.2021 16:50 14,6 C 13,9 C 12,3 C 77 % 1021,4 hPa 0,0 l/m 0 min 0 min 64 W/m 6,4 km/h (2 Bft) 100,00 %
26.10.2021 16:52 14,5 C 13,9 C 11,7 C 78 % 1021,3 hPa 0,0 l/m 0 min 0 min 64 W/m 12,9 km/h (3 Bft) 100,00 %
26.10.2021 16:54 14,5 C 13,9 C 11,7 C 78 % 1021,4 hPa 0,0 l/m 0 min 0 min 69 W/m 19,3 km/h (3 Bft) 100,00 %
26.10.2021 16:56 14,5 C 13,9 C 11,7 C 78 % 1021,3 hPa 0,0 l/m 0 min 0 min 65 W/m 16,1 km/h (3 Bft) 100,00 %
26.10.2021 16:58 14,5 C 13,9 C 11,7 C 78 % 1021,4 hPa 0,0 l/m 0 min 0 min 56 W/m 22,5 km/h (4 Bft) 100,00 %
26.10.2021 17:00 14,4 C 13,9 C 11,7 C 78 % 1021,4 hPa 0,0 l/m 0 min 0 min 57 W/m 16,1 km/h (3 Bft) 97,87 %
26.10.2021 17:02 14,4 C 13,9 C 11,7 C 78 % 1021,4 hPa 0,0 l/m 0 min 0 min 61 W/m 19,3 km/h (3 Bft) 100,00 %
26.10.2021 17:04 14,4 C 13,9 C 11,7 C 78 % 1021,4 hPa 0,0 l/m 0 min 0 min 60 W/m 22,5 km/h (4 Bft) 95,74 %
26.10.2021 17:06 14,4 C 13,9 C 11,7 C 78 % 1021,4 hPa 0,0 l/m 0 min 0 min 60 W/m 16,1 km/h (3 Bft) 100,00 %
26.10.2021 17:08 14,4 C 13,9 C 11,7 C 78 % 1021,4 hPa 0,0 l/m 0 min 0 min 71 W/m 22,5 km/h (4 Bft) 100,00 %
26.10.2021 17:10 14,4 C 13,9 C 11,7 C 78 % 1021,4 hPa 0,0 l/m 2 min 0 min 87 W/m 19,3 km/h (3 Bft) 97,87 %
26.10.2021 17:12 14,4 C 14,4 C 12,3 C 78 % 1021,4 hPa 0,0 l/m 2 min 0 min 86 W/m 22,5 km/h (4 Bft) 95,74 %
26.10.2021 17:14 14,4 C 13,9 C 12,3 C 78 % 1021,4 hPa 0,0 l/m 2 min 0 min 76 W/m 22,5 km/h (4 Bft) 97,83 %
26.10.2021 17:16 14,5 C 14,4 C 12,3 C 78 % 1021,4 hPa 0,0 l/m 0 min 0 min 68 W/m 16,1 km/h (3 Bft) 97,87 %
26.10.2021 17:18 14,5 C 13,9 C 11,7 C 78 % 1021,4 hPa 0,0 l/m 0 min 0 min 55 W/m 19,3 km/h (3 Bft) 97,87 %
26.10.2021 17:20 14,4 C 13,9 C 11,7 C 78 % 1021,4 hPa 0,0 l/m 0 min 0 min 46 W/m 12,9 km/h (3 Bft) 97,87 %
26.10.2021 17:22 14,4 C 13,9 C 11,7 C 78 % 1021,4 hPa 0,0 l/m 0 min 0 min 41 W/m 12,9 km/h (3 Bft) 97,87 %
26.10.2021 17:24 14,4 C 13,9 C 11,7 C 78 % 1021,4 hPa 0,0 l/m 0 min 0 min 39 W/m 16,1 km/h (3 Bft) 97,87 %
26.10.2021 17:26 14,4 C 13,9 C 11,7 C 78 % 1021,4 hPa 0,0 l/m 0 min 0 min 37 W/m 12,9 km/h (3 Bft) 95,65 %
26.10.2021 17:28 14,3 C 13,9 C 11,7 C 78 % 1021,5 hPa 0,0 l/m 0 min 0 min 34 W/m 19,3 km/h (3 Bft) 97,87 %
26.10.2021 17:30 14,3 C 13,9 C 11,7 C 78 % 1021,5 hPa 0,0 l/m 0 min 0 min 31 W/m 12,9 km/h (3 Bft) 97,87 %
26.10.2021 17:32 14,2 C 13,9 C 11,7 C 78 % 1021,5 hPa 0,0 l/m 0 min 0 min 31 W/m 22,5 km/h (4 Bft) 95,74 %
26.10.2021 17:34 14,2 C 13,9 C 11,7 C 79 % 1021,5 hPa 0,0 l/m 0 min 0 min 32 W/m 16,1 km/h (3 Bft) 93,62 %
26.10.2021 17:36 14,2 C 13,9 C 11,7 C 79 % 1021,5 hPa 0,0 l/m 0 min 0 min 28 W/m 22,5 km/h (4 Bft) 95,74 %
26.10.2021 17:38 14,2 C 13,3 C 11,7 C 79 % 1021,5 hPa 0,0 l/m 0 min 0 min 25 W/m 12,9 km/h (3 Bft) 97,83 %
26.10.2021 17:40 14,2 C 13,3 C 11,7 C 79 % 1021,6 hPa 0,0 l/m 0 min 0 min 25 W/m 16,1 km/h (3 Bft) 97,87 %
26.10.2021 17:42 14,2 C 13,3 C 11,7 C 79 % 1021,5 hPa 0,0 l/m 0 min 0 min 25 W/m 16,1 km/h (3 Bft) 97,87 %
26.10.2021 17:44 14,2 C 13,3 C 11,7 C 79 % 1021,6 hPa 0,0 l/m 0 min 0 min 26 W/m 12,9 km/h (3 Bft) 97,87 %
26.10.2021 17:46 14,2 C 13,3 C 11,7 C 79 % 1021,5 hPa 0,0 l/m 0 min 0 min 24 W/m 19,3 km/h (3 Bft) 97,87 %
26.10.2021 17:48 14,2 C 13,3 C 11,1 C 79 % 1021,6 hPa 0,0 l/m 0 min 0 min 20 W/m 19,3 km/h (3 Bft) 100,00 %
26.10.2021 17:50 14,2 C 13,3 C 11,1 C 79 % 1021,6 hPa 0,0 l/m 0 min 0 min 19 W/m 25,7 km/h (4 Bft) 95,65 %
26.10.2021 17:52 14,1 C 13,3 C 11,1 C 79 % 1021,6 hPa 0,0 l/m 0 min 0 min 18 W/m 22,5 km/h (4 Bft) 100,00 %
26.10.2021 17:54 14,1 C 13,3 C 11,1 C 79 % 1021,6 hPa 0,0 l/m 0 min 0 min 18 W/m 16,1 km/h (3 Bft) 100,00 %
26.10.2021 17:56 14,1 C 13,3 C 11,1 C 79 % 1021,7 hPa 0,0 l/m 0 min 0 min 18 W/m 16,1 km/h (3 Bft) 97,87 %
26.10.2021 17:58 14,0 C 13,3 C 11,1 C 79 % 1021,6 hPa 0,0 l/m 0 min 0 min 19 W/m 12,9 km/h (3 Bft) 100,00 %
26.10.2021 18:00 14,0 C 13,3 C 11,1 C 79 % 1021,6 hPa 0,0 l/m 0 min 0 min 19 W/m 19,3 km/h (3 Bft) 100,00 %
26.10.2021 18:02 14,0 C 13,3 C 11,1 C 79 % 1021,6 hPa 0,0 l/m 0 min 0 min 16 W/m 19,3 km/h (3 Bft) 100,00 %
26.10.2021 18:04 14,0 C 13,3 C 11,1 C 79 % 1021,6 hPa 0,0 l/m 0 min 0 min 12 W/m 22,5 km/h (4 Bft) 100,00 %
26.10.2021 18:06 14,0 C 13,3 C 11,1 C 79 % 1021,6 hPa 0,0 l/m 0 min 0 min 11 W/m 16,1 km/h (3 Bft) 100,00 %
26.10.2021 18:08 14,0 C 13,3 C 11,1 C 80 % 1021,6 hPa 0,0 l/m 0 min 0 min 9 W/m 12,9 km/h (3 Bft) 100,00 %
26.10.2021 18:10 13,9 C 13,3 C 11,1 C 80 % 1021,6 hPa 0,0 l/m 0 min 0 min 7 W/m 22,5 km/h (4 Bft) 100,00 %
26.10.2021 18:12 13,9 C 12,8 C 11,1 C 80 % 1021,7 hPa 0,0 l/m 0 min 0 min 6 W/m 16,1 km/h (3 Bft) 100,00 %
26.10.2021 18:14 13,9 C 12,8 C 11,1 C 80 % 1021,7 hPa 0,0 l/m 0 min 0 min 1 W/m 22,5 km/h (4 Bft) 100,00 %
26.10.2021 18:16 13,8 C 12,8 C 11,1 C 80 % 1021,7 hPa 0,0 l/m 0 min 0 min 0 W/m 25,7 km/h (4 Bft) 100,00 %
26.10.2021 18:18 13,8 C 12,8 C 11,1 C 80 % 1021,8 hPa 0,0 l/m 0 min 0 min 0 W/m 12,9 km/h (3 Bft) 100,00 %
26.10.2021 18:20 13,8 C 12,8 C 11,1 C 80 % 1021,7 hPa 0,0 l/m 0 min 0 min 0 W/m 12,9 km/h (3 Bft) 100,00 %
26.10.2021 18:22 13,7 C 12,8 C 11,1 C 80 % 1021,8 hPa 0,0 l/m 0 min 0 min 0 W/m 19,3 km/h (3 Bft) 100,00 %
26.10.2021 18:24 13,6 C 12,8 C 11,1 C 80 % 1021,8 hPa 0,0 l/m 0 min 0 min 0 W/m 12,9 km/h (3 Bft) 97,87 %
26.10.2021 18:26 13,6 C 12,8 C 11,1 C 80 % 1021,9 hPa 0,0 l/m 0 min 0 min 0 W/m 25,7 km/h (4 Bft) 97,83 %
26.10.2021 18:28 13,6 C 12,8 C 11,1 C 81 % 1021,8 hPa 0,0 l/m 0 min 0 min 0 W/m 22,5 km/h (4 Bft) 100,00 %
26.10.2021 18:30 13,6 C 12,8 C 11,1 C 81 % 1021,9 hPa 0,0 l/m 0 min 0 min 0 W/m 16,1 km/h (3 Bft) 97,87 %
26.10.2021 18:32 13,6 C 12,8 C 11,1 C 81 % 1021,9 hPa 0,0 l/m 0 min 0 min 0 W/m 12,9 km/h (3 Bft) 97,87 %
26.10.2021 18:34 13,5 C 12,8 C 11,1 C 81 % 1022,0 hPa 0,0 l/m 0 min 0 min 0 W/m 19,3 km/h (3 Bft) 97,87 %
26.10.2021 18:36 13,5 C 12,8 C 11,1 C 81 % 1022,0 hPa 0,0 l/m 0 min 0 min 0 W/m 19,3 km/h (3 Bft) 100,00 %
26.10.2021 18:38 13,5 C 12,8 C 11,1 C 81 % 1022,1 hPa 0,0 l/m 0 min 0 min 0 W/m 19,3 km/h (3 Bft) 100,00 %
26.10.2021 18:40 13,5 C 12,8 C 11,1 C 81 % 1022,1 hPa 0,0 l/m 0 min 0 min 0 W/m 16,1 km/h (3 Bft) 89,36 %
26.10.2021 18:42 13,5 C 12,8 C 10,6 C 81 % 1022,1 hPa 0,0 l/m 0 min 0 min 0 W/m 12,9 km/h (3 Bft) 95,74 %
26.10.2021 18:44 13,5 C 12,8 C 10,6 C 81 % 1022,1 hPa 0,0 l/m 0 min 0 min 0 W/m 16,1 km/h (3 Bft) 93,62 %
26.10.2021 18:46 13,5 C 12,8 C 10,6 C 81 % 1022,2 hPa 0,0 l/m 0 min 0 min 0 W/m 12,9 km/h (3 Bft) 95,74 %
26.10.2021 18:48 13,4 C 12,8 C 10,6 C 81 % 1022,2 hPa 0,0 l/m 0 min 0 min 0 W/m 12,9 km/h (3 Bft) 95,65 %
26.10.2021 18:50 13,4 C 12,8 C 10,6 C 81 % 1022,1 hPa 0,0 l/m 0 min 0 min 0 W/m 12,9 km/h (3 Bft) 96,30 %
26.10.2021 18:52 13,4 C 12,8 C 10,6 C 81 % 1022,2 hPa 0,0 l/m 0 min 0 min 0 W/m 12,9 km/h (3 Bft) 95,74 %
26.10.2021 18:54 13,4 C 12,8 C 10,6 C 82 % 1022,3 hPa 0,0 l/m 0 min 0 min 0 W/m 9,7 km/h (2 Bft) 95,74 %
26.10.2021 18:56 13,3 C 12,8 C 10,6 C 82 % 1022,3 hPa 0,0 l/m 0 min 0 min 0 W/m 16,1 km/h (3 Bft) 91,49 %
26.10.2021 18:58 13,3 C 12,8 C 10,6 C 82 % 1022,3 hPa 0,0 l/m 0 min 0 min 0 W/m 9,7 km/h (2 Bft) 95,74 %
26.10.2021 19:00 13,3 C 12,8 C 10,6 C 82 % 1022,4 hPa 0,0 l/m 0 min 0 min 0 W/m 12,9 km/h (3 Bft) 95,65 %
26.10.2021 19:02 13,3 C 12,8 C 10,6 C 82 % 1022,4 hPa 0,0 l/m 0 min 0 min 0 W/m 16,1 km/h (3 Bft) 95,74 %
26.10.2021 19:04 13,3 C 12,8 C 10,6 C 82 % 1022,4 hPa 0,0 l/m 0 min 0 min 0 W/m 16,1 km/h (3 Bft) 95,74 %
26.10.2021 19:06 13,3 C 12,8 C 10,6 C 82 % 1022,4 hPa 0,0 l/m 0 min 0 min 0 W/m 12,9 km/h (3 Bft) 93,62 %
26.10.2021 19:08 13,3 C 12,8 C 10,6 C 82 % 1022,4 hPa 0,0 l/m 0 min 0 min 0 W/m 12,9 km/h (3 Bft) 93,62 %
26.10.2021 19:10 13,3 C 12,8 C 10,6 C 82 % 1022,5 hPa 0,0 l/m 0 min 0 min 0 W/m 9,7 km/h (2 Bft) 91,49 %
26.10.2021 19:12 13,3 C 12,2 C 10,6 C 82 % 1022,5 hPa 0,0 l/m 0 min 0 min 0 W/m 12,9 km/h (3 Bft) 91,30 %
26.10.2021 19:14 13,3 C 12,2 C 10,6 C 82 % 1022,4 hPa 0,0 l/m 0 min 0 min 0 W/m 12,9 km/h (3 Bft) 95,74 %
26.10.2021 19:16 13,2 C 12,2 C 10,6 C 82 % 1022,5 hPa 0,0 l/m 0 min 0 min 0 W/m 6,4 km/h (2 Bft) 93,62 %
26.10.2021 19:18 13,2 C 12,2 C 10,6 C 82 % 1022,4 hPa 0,0 l/m 0 min 0 min 0 W/m 12,9 km/h (3 Bft) 93,62 %
26.10.2021 19:20 13,1 C 12,2 C 10,6 C 83 % 1022,5 hPa 0,0 l/m 0 min 0 min 0 W/m 6,4 km/h (2 Bft) 91,49 %
26.10.2021 19:22 13,1 C 12,2 C 10,6 C 83 % 1022,5 hPa 0,0 l/m 0 min 0 min 0 W/m 12,9 km/h (3 Bft) 95,74 %
26.10.2021 19:24 13,1 C 12,2 C 10,0 C 83 % 1022,5 hPa 0,0 l/m 0 min 0 min 0 W/m 16,1 km/h (3 Bft) 91,30 %
26.10.2021 19:26 13,0 C 12,2 C 10,0 C 83 % 1022,5 hPa 0,0 l/m 0 min 0 min 0 W/m 12,9 km/h (3 Bft) 95,74 %
26.10.2021 19:28 13,0 C 11,7 C 10,0 C 83 % 1022,5 hPa 0,0 l/m 0 min 0 min 0 W/m 3,2 km/h (1 Bft) 95,74 %
26.10.2021 19:30 13,0 C 11,7 C 10,0 C 83 % 1022,5 hPa 0,0 l/m 0 min 0 min 0 W/m 9,7 km/h (2 Bft) 97,87 %
26.10.2021 19:32 12,9 C 11,7 C 10,0 C 83 % 1022,5 hPa 0,0 l/m 0 min 0 min 0 W/m 6,4 km/h (2 Bft) 97,87 %
26.10.2021 19:34 12,9 C 11,7 C 10,0 C 83 % 1022,5 hPa 0,0 l/m 0 min 0 min 0 W/m 6,4 km/h (2 Bft) 97,87 %
26.10.2021 19:36 12,8 C 11,7 C 10,0 C 84 % 1022,5 hPa 0,0 l/m 0 min 0 min 0 W/m 16,1 km/h (3 Bft) 95,65 %
26.10.2021 19:38 12,8 C 11,7 C 10,0 C 84 % 1022,5 hPa 0,0 l/m 0 min 0 min 0 W/m 9,7 km/h (2 Bft) 100,00 %
26.10.2021 19:40 12,8 C 11,7 C 10,0 C 84 % 1022,5 hPa 0,0 l/m 0 min 0 min 0 W/m 3,2 km/h (1 Bft) 97,87 %
26.10.2021 19:42 12,7 C 11,7 C 10,0 C 84 % 1022,5 hPa 0,0 l/m 0 min 0 min 0 W/m 3,2 km/h (1 Bft) 100,00 %
26.10.2021 19:44 12,6 C 11,7 C 9,5 C 84 % 1022,5 hPa 0,0 l/m 0 min 0 min 0 W/m 9,7 km/h (2 Bft) 97,87 %
26.10.2021 19:46 12,6 C 11,7 C 9,5 C 84 % 1022,6 hPa 0,0 l/m 0 min 0 min 0 W/m 12,9 km/h (3 Bft) 97,87 %
26.10.2021 19:48 12,5 C 11,1 C 9,5 C 85 % 1022,6 hPa 0,0 l/m 0 min 0 min 0 W/m 16,1 km/h (3 Bft) 100,00 %
26.10.2021 19:50 12,5 C 11,1 C 9,5 C 85 % 1022,6 hPa 0,0 l/m 0 min 0 min 0 W/m 9,7 km/h (2 Bft) 100,00 %
26.10.2021 19:52 12,4 C 11,1 C 9,5 C 85 % 1022,6 hPa 0,0 l/m 0 min 0 min 0 W/m 9,7 km/h (2 Bft) 97,87 %
26.10.2021 19:54 12,4 C 11,1 C 9,5 C 85 % 1022,6 hPa 0,0 l/m 0 min 0 min 0 W/m 9,7 km/h (2 Bft) 100,00 %
26.10.2021 19:56 12,3 C 11,1 C 9,5 C 85 % 1022,7 hPa 0,0 l/m 0 min 0 min 0 W/m 3,2 km/h (1 Bft) 97,87 %
26.10.2021 19:58 12,3 C 11,1 C 9,5 C 85 % 1022,6 hPa 0,0 l/m 0 min 0 min 0 W/m 6,4 km/h (2 Bft) 100,00 %
26.10.2021 20:00 12,3 C 11,1 C 9,5 C 85 % 1022,6 hPa 0,0 l/m 0 min 0 min 0 W/m 12,9 km/h (3 Bft) 100,00 %
26.10.2021 20:02 12,3 C 11,1 C 9,5 C 86 % 1022,6 hPa 0,0 l/m 0 min 0 min 0 W/m 6,4 km/h (2 Bft) 97,87 %
26.10.2021 20:04 12,2 C 11,1 C 9,5 C 86 % 1022,6 hPa 0,0 l/m 0 min 0 min 0 W/m 6,4 km/h (2 Bft) 100,00 %
26.10.2021 20:06 12,1 C 11,1 C 9,5 C 86 % 1022,6 hPa 0,0 l/m 0 min 0 min 0 W/m 16,1 km/h (3 Bft) 100,00 %
26.10.2021 20:08 12,1 C 11,1 C 9,5 C 86 % 1022,6 hPa 0,0 l/m 0 min 0 min 0 W/m 9,7 km/h (2 Bft) 100,00 %
26.10.2021 20:10 12,1 C 11,1 C 9,5 C 86 % 1022,7 hPa 0,0 l/m 0 min 0 min 0 W/m 12,9 km/h (3 Bft) 100,00 %
26.10.2021 20:12 12,0 C 11,1 C 9,5 C 86 % 1022,7 hPa 0,0 l/m 0 min 0 min 0 W/m 16,1 km/h (3 Bft) 100,00 %
26.10.2021 20:14 12,0 C 11,1 C 9,5 C 86 % 1022,7 hPa 0,0 l/m 0 min 0 min 0 W/m 6,4 km/h (2 Bft) 97,87 %
26.10.2021 20:16 12,0 C 11,1 C 9,5 C 86 % 1022,7 hPa 0,0 l/m 0 min 0 min 0 W/m 16,1 km/h (3 Bft) 100,00 %
26.10.2021 20:18 12,0 C 11,1 C 9,5 C 87 % 1022,8 hPa 0,0 l/m 0 min 0 min 0 W/m 9,7 km/h (2 Bft) 100,00 %
26.10.2021 20:20 12,0 C 11,1 C 9,5 C 87 % 1022,8 hPa 0,0 l/m 0 min 0 min 0 W/m 9,7 km/h (2 Bft) 100,00 %
26.10.2021 20:22 12,0 C 11,1 C 9,5 C 87 % 1022,8 hPa 0,0 l/m 0 min 0 min 0 W/m 6,4 km/h (2 Bft) 100,00 %
26.10.2021 20:24 11,9 C 11,1 C 9,5 C 87 % 1022,8 hPa 0,0 l/m 0 min 0 min 0 W/m 9,7 km/h (2 Bft) 100,00 %
26.10.2021 20:26 11,9 C 11,1 C 9,5 C 87 % 1022,8 hPa 0,0 l/m 0 min 0 min 0 W/m 9,7 km/h (2 Bft) 100,00 %
26.10.2021 20:28 11,9 C 11,1 C 9,5 C 87 % 1022,8 hPa 0,0 l/m 0 min 0 min 0 W/m 6,4 km/h (2 Bft) 100,00 %
26.10.2021 20:30 11,9 C 11,1 C 9,5 C 87 % 1022,8 hPa 0,0 l/m 0 min 0 min 0 W/m 6,4 km/h (2 Bft) 100,00 %
26.10.2021 20:32 11,9 C 11,1 C 9,5 C 87 % 1022,8 hPa 0,0 l/m 0 min 0 min 0 W/m 6,4 km/h (2 Bft) 100,00 %
26.10.2021 20:34 11,8 C 11,1 C 9,5 C 87 % 1022,8 hPa 0,0 l/m 0 min 0 min 0 W/m 6,4 km/h (2 Bft) 100,00 %
26.10.2021 20:36 11,8 C 11,1 C 9,5 C 87 % 1022,8 hPa 0,0 l/m 0 min 0 min 0 W/m 3,2 km/h (1 Bft) 100,00 %
26.10.2021 20:38 11,8 C 11,1 C 9,5 C 87 % 1022,8 hPa 0,0 l/m 0 min 0 min 0 W/m 6,4 km/h (2 Bft) 100,00 %
26.10.2021 20:40 11,8 C 10,6 C 9,5 C 87 % 1022,8 hPa 0,0 l/m 0 min 0 min 0 W/m 6,4 km/h (2 Bft) 100,00 %
26.10.2021 20:42 11,8 C 10,6 C 9,5 C 87 % 1022,8 hPa 0,0 l/m 0 min 0 min 0 W/m 3,2 km/h (1 Bft) 100,00 %
26.10.2021 20:44 11,7 C 10,6 C 9,5 C 88 % 1022,8 hPa 0,0 l/m 0 min 0 min 0 W/m 9,7 km/h (2 Bft) 100,00 %
26.10.2021 20:46 11,7 C 10,6 C 9,5 C 88 % 1022,8 hPa 0,0 l/m 0 min 0 min 0 W/m 3,2 km/h (1 Bft) 100,00 %
26.10.2021 20:48 11,6 C 10,6 C 9,5 C 88 % 1022,8 hPa 0,0 l/m 0 min 0 min 0 W/m 9,7 km/h (2 Bft) 100,00 %
26.10.2021 20:50 11,6 C 10,6 C 8,9 C 88 % 1022,8 hPa 0,0 l/m 0 min 0 min 0 W/m 6,4 km/h (2 Bft) 100,00 %
26.10.2021 20:52 11,6 C 10,6 C 8,9 C 88 % 1022,8 hPa 0,0 l/m 0 min 0 min 0 W/m 3,2 km/h (1 Bft) 97,87 %
26.10.2021 20:54 11,6 C 10,6 C 8,9 C 88 % 1022,8 hPa 0,0 l/m 0 min 0 min 0 W/m 3,2 km/h (1 Bft) 97,87 %
26.10.2021 20:56 11,5 C 10,6 C 8,9 C 88 % 1022,7 hPa 0,0 l/m 0 min 0 min 0 W/m 3,2 km/h (1 Bft) 100,00 %
26.10.2021 20:58 11,5 C 10,6 C 8,9 C 88 % 1022,7 hPa 0,0 l/m 0 min 0 min 0 W/m 6,4 km/h (2 Bft) 97,83 %
26.10.2021 21:00 11,5 C 10,6 C 8,9 C 88 % 1022,8 hPa 0,0 l/m 0 min 0 min 0 W/m 3,2 km/h (1 Bft) 95,74 %
26.10.2021 21:02 11,5 C 10,6 C 8,9 C 88 % 1022,7 hPa 0,0 l/m 0 min 0 min 0 W/m 6,4 km/h (2 Bft) 97,87 %
26.10.2021 21:04 11,5 C 10,6 C 8,9 C 88 % 1022,7 hPa 0,0 l/m 0 min 0 min 0 W/m 3,2 km/h (1 Bft) 97,87 %
26.10.2021 21:06 11,4 C 10,6 C 8,9 C 88 % 1022,7 hPa 0,0 l/m 0 min 0 min 0 W/m 6,4 km/h (2 Bft) 97,87 %
26.10.2021 21:08 11,4 C 10,6 C 8,9 C 88 % 1022,7 hPa 0,0 l/m 0 min 0 min 0 W/m 12,9 km/h (3 Bft) 97,87 %
26.10.2021 21:10 11,4 C 10,6 C 8,9 C 88 % 1022,8 hPa 0,0 l/m 0 min 0 min 0 W/m 12,9 km/h (3 Bft) 95,65 %
26.10.2021 21:12 11,4 C 10,6 C 8,9 C 88 % 1022,7 hPa 0,0 l/m 0 min 0 min 0 W/m 16,1 km/h (3 Bft) 95,74 %
26.10.2021 21:14 11,4 C 10,6 C 8,9 C 89 % 1022,7 hPa 0,0 l/m 0 min 0 min 0 W/m 12,9 km/h (3 Bft) 95,74 %
26.10.2021 21:16 11,4 C 10,6 C 9,5 C 89 % 1022,8 hPa 0,0 l/m 0 min 0 min 0 W/m 6,4 km/h (2 Bft) 95,74 %
26.10.2021 21:18 11,4 C 10,6 C 9,5 C 89 % 1022,8 hPa 0,0 l/m 0 min 0 min 0 W/m 16,1 km/h (3 Bft) 95,74 %
26.10.2021 21:20 11,4 C 11,1 C 9,5 C 89 % 1022,8 hPa 0,0 l/m 0 min 0 min 0 W/m 12,9 km/h (3 Bft) 95,74 %
26.10.2021 21:22 11,4 C 11,1 C 9,5 C 89 % 1022,8 hPa 0,0 l/m 0 min 0 min 0 W/m 19,3 km/h (3 Bft) 95,65 %
26.10.2021 21:24 11,4 C 11,1 C 9,5 C 89 % 1022,8 hPa 0,0 l/m 0 min 0 min 0 W/m 19,3 km/h (3 Bft) 93,62 %
26.10.2021 21:26 11,4 C 11,1 C 9,5 C 89 % 1022,8 hPa 0,0 l/m 0 min 0 min 0 W/m 12,9 km/h (3 Bft) 93,62 %
26.10.2021 21:28 11,5 C 11,1 C 9,5 C 89 % 1022,8 hPa 0,0 l/m 0 min 0 min 0 W/m 22,5 km/h (4 Bft) 97,87 %
26.10.2021 21:30 11,5 C 11,1 C 9,5 C 89 % 1022,9 hPa 0,0 l/m 0 min 0 min 0 W/m 16,1 km/h (3 Bft) 97,87 %
26.10.2021 21:32 11,5 C 11,1 C 9,5 C 89 % 1022,9 hPa 0,0 l/m 0 min 0 min 0 W/m 9,7 km/h (2 Bft) 97,87 %
26.10.2021 21:34 11,5 C 11,1 C 9,5 C 89 % 1022,9 hPa 0,0 l/m 0 min 0 min 0 W/m 16,1 km/h (3 Bft) 97,83 %
26.10.2021 21:36 11,6 C 11,1 C 9,5 C 89 % 1022,8 hPa 0,0 l/m 0 min 0 min 0 W/m 19,3 km/h (3 Bft) 97,87 %
26.10.2021 21:38 11,6 C 11,1 C 9,5 C 89 % 1022,9 hPa 0,0 l/m 0 min 0 min 0 W/m 12,9 km/h (3 Bft) 100,00 %
26.10.2021 21:40 11,6 C 11,1 C 9,5 C 89 % 1022,9 hPa 0,0 l/m 0 min 0 min 0 W/m 19,3 km/h (3 Bft) 97,87 %
26.10.2021 21:42 11,6 C 11,1 C 9,5 C 89 % 1022,9 hPa 0,0 l/m 0 min 0 min 0 W/m 19,3 km/h (3 Bft) 93,62 %
26.10.2021 21:44 11,7 C 11,1 C 9,5 C 89 % 1022,9 hPa 0,0 l/m 0 min 0 min 0 W/m 19,3 km/h (3 Bft) 95,74 %
26.10.2021 21:46 11,8 C 11,1 C 9,5 C 89 % 1022,9 hPa 0,0 l/m 0 min 0 min 0 W/m 12,9 km/h (3 Bft) 95,65 %
26.10.2021 21:48 11,8 C 11,1 C 9,5 C 89 % 1022,9 hPa 0,0 l/m 0 min 0 min 0 W/m 12,9 km/h (3 Bft) 94,74 %
26.10.2021 21:50 11,8 C 11,1 C 10,0 C 89 % 1022,9 hPa 0,0 l/m 0 min 0 min 0 W/m 12,9 km/h (3 Bft) 96,00 %
26.10.2021 21:52 11,8 C 11,7 C 10,0 C 89 % 1022,9 hPa 0,0 l/m 0 min 0 min 0 W/m 19,3 km/h (3 Bft) 95,74 %
26.10.2021 21:54 11,8 C 11,7 C 10,0 C 89 % 1022,9 hPa 0,0 l/m 0 min 0 min 0 W/m 25,7 km/h (4 Bft) 95,74 %
26.10.2021 21:56 11,9 C 11,7 C 10,0 C 88 % 1022,9 hPa 0,0 l/m 0 min 0 min 0 W/m 22,5 km/h (4 Bft) 98,11 %
26.10.2021 21:58 11,9 C 11,7 C 10,0 C 88 % 1022,9 hPa 0,0 l/m 0 min 0 min 0 W/m 19,3 km/h (3 Bft) 97,83 %
26.10.2021 22:00 11,9 C 11,7 C 10,0 C 88 % 1022,9 hPa 0,0 l/m 0 min 0 min 0 W/m 25,7 km/h (4 Bft) 97,37 %
26.10.2021 22:02 11,9 C 11,7 C 10,0 C 88 % 1022,9 hPa 0,0 l/m 0 min 0 min 0 W/m 25,7 km/h (4 Bft) 91,49 %
26.10.2021 22:04 11,9 C 11,7 C 10,0 C 88 % 1022,9 hPa 0,0 l/m 0 min 0 min 0 W/m 12,9 km/h (3 Bft) 98,00 %
26.10.2021 22:06 11,9 C 11,7 C 10,0 C 88 % 1022,9 hPa 0,0 l/m 0 min 0 min 0 W/m 12,9 km/h (3 Bft) 95,74 %
26.10.2021 22:08 11,9 C 11,7 C 10,0 C 88 % 1022,9 hPa 0,0 l/m 0 min 0 min 0 W/m 19,3 km/h (3 Bft) 95,74 %
26.10.2021 22:10 11,9 C 11,7 C 10,0 C 88 % 1022,9 hPa 0,0 l/m 0 min 0 min 0 W/m 19,3 km/h (3 Bft) 97,83 %
26.10.2021 22:12 11,9 C 11,7 C 10,0 C 88 % 1022,8 hPa 0,0 l/m 0 min 0 min 0 W/m 19,3 km/h (3 Bft) 95,74 %
26.10.2021 22:14 12,0 C 11,7 C 10,0 C 88 % 1022,9 hPa 0,0 l/m 0 min 0 min 0 W/m 16,1 km/h (3 Bft) 97,87 %
26.10.2021 22:16 12,0 C 11,7 C 10,0 C 88 % 1022,8 hPa 0,0 l/m 0 min 0 min 0 W/m 19,3 km/h (3 Bft) 97,87 %
26.10.2021 22:18 12,0 C 11,7 C 10,0 C 88 % 1022,9 hPa 0,0 l/m 0 min 0 min 0 W/m 22,5 km/h (4 Bft) 97,87 %
26.10.2021 22:20 12,0 C 11,7 C 10,0 C 88 % 1022,9 hPa 0,0 l/m 0 min 0 min 0 W/m 19,3 km/h (3 Bft) 95,74 %
26.10.2021 22:22 12,0 C 11,7 C 10,0 C 88 % 1022,9 hPa 0,0 l/m 0 min 0 min 0 W/m 16,1 km/h (3 Bft) 97,83 %
26.10.2021 22:24 12,0 C 11,7 C 10,0 C 88 % 1022,9 hPa 0,0 l/m 0 min 0 min 0 W/m 19,3 km/h (3 Bft) 97,87 %
26.10.2021 22:26 12,0 C 11,7 C 10,0 C 88 % 1022,9 hPa 0,0 l/m 0 min 0 min 0 W/m 16,1 km/h (3 Bft) 95,74 %
26.10.2021 22:28 12,0 C 11,7 C 10,0 C 88 % 1022,8 hPa 0,0 l/m 0 min 0 min 0 W/m 16,1 km/h (3 Bft) 100,00 %
26.10.2021 22:30 12,0 C 11,7 C 10,0 C 88 % 1022,9 hPa 0,0 l/m 0 min 0 min 0 W/m 32,2 km/h (5 Bft) 100,00 %
26.10.2021 22:32 12,0 C 11,7 C 10,0 C 88 % 1022,9 hPa 0,0 l/m 0 min 0 min 0 W/m 16,1 km/h (3 Bft) 100,00 %
26.10.2021 22:34 12,0 C 11,7 C 10,0 C 88 % 1022,9 hPa 0,0 l/m 0 min 0 min 0 W/m 16,1 km/h (3 Bft) 100,00 %
26.10.2021 22:36 12,0 C 11,7 C 10,0 C 88 % 1022,9 hPa 0,0 l/m 0 min 0 min 0 W/m 19,3 km/h (3 Bft) 97,87 %
26.10.2021 22:38 12,0 C 11,7 C 10,0 C 88 % 1023,0 hPa 0,0 l/m 0 min 0 min 0 W/m 22,5 km/h (4 Bft) 95,74 %
26.10.2021 22:40 12,1 C 11,7 C 10,0 C 88 % 1022,9 hPa 0,0 l/m 0 min 0 min 0 W/m 22,5 km/h (4 Bft) 100,00 %
26.10.2021 22:42 12,1 C 11,7 C 10,0 C 88 % 1022,9 hPa 0,0 l/m 0 min 0 min 0 W/m 19,3 km/h (3 Bft) 100,00 %
26.10.2021 22:44 12,1 C 11,7 C 10,0 C 88 % 1022,9 hPa 0,0 l/m 0 min 0 min 0 W/m 12,9 km/h (3 Bft) 97,83 %
26.10.2021 22:46 12,1 C 11,7 C 10,0 C 88 % 1023,0 hPa 0,0 l/m 0 min 0 min 0 W/m 29,0 km/h (5 Bft) 100,00 %
26.10.2021 22:48 12,1 C 11,7 C 10,0 C 88 % 1023,0 hPa 0,0 l/m 0 min 0 min 0 W/m 25,7 km/h (4 Bft) 100,00 %
26.10.2021 22:50 12,1 C 11,7 C 10,0 C 88 % 1023,0 hPa 0,0 l/m 0 min 0 min 0 W/m 32,2 km/h (5 Bft) 100,00 %
26.10.2021 22:52 12,2 C 11,7 C 10,0 C 89 % 1023,1 hPa 0,0 l/m 0 min 0 min 0 W/m 22,5 km/h (4 Bft) 97,87 %
26.10.2021 22:54 12,2 C 11,7 C 10,0 C 89 % 1023,1 hPa 0,0 l/m 0 min 0 min 0 W/m 19,3 km/h (3 Bft) 97,87 %
26.10.2021 22:56 12,2 C 11,7 C 10,0 C 89 % 1023,0 hPa 0,0 l/m 0 min 0 min 0 W/m 19,3 km/h (3 Bft) 97,83 %
26.10.2021 22:58 12,2 C 11,7 C 10,0 C 89 % 1023,1 hPa 0,0 l/m 0 min 0 min 0 W/m 19,3 km/h (3 Bft) 97,87 %
26.10.2021 23:00 12,3 C 11,7 C 10,0 C 89 % 1023,1 hPa 0,0 l/m 0 min 0 min 0 W/m 19,3 km/h (3 Bft) 97,87 %
26.10.2021 23:02 12,3 C 11,7 C 10,0 C 89 % 1023,1 hPa 0,0 l/m 0 min 0 min 0 W/m 19,3 km/h (3 Bft) 97,87 %
26.10.2021 23:04 12,3 C 11,7 C 10,0 C 89 % 1023,1 hPa 0,0 l/m 0 min 0 min 0 W/m 19,3 km/h (3 Bft) 97,87 %
26.10.2021 23:06 12,3 C 11,7 C 10,0 C 89 % 1023,1 hPa 0,0 l/m 0 min 0 min 0 W/m 19,3 km/h (3 Bft) 97,87 %
26.10.2021 23:08 12,3 C 11,7 C 10,0 C 89 % 1023,1 hPa 0,0 l/m 0 min 0 min 0 W/m 12,9 km/h (3 Bft) 97,83 %
26.10.2021 23:10 12,3 C 11,7 C 10,0 C 89 % 1023,1 hPa 0,0 l/m 0 min 0 min 0 W/m 19,3 km/h (3 Bft) 97,87 %
26.10.2021 23:12 12,3 C 11,7 C 10,0 C 89 % 1023,1 hPa 0,0 l/m 0 min 0 min 0 W/m 19,3 km/h (3 Bft) 95,74 %
26.10.2021 23:14 12,3 C 11,7 C 10,0 C 89 % 1023,1 hPa 0,0 l/m 0 min 0 min 0 W/m 22,5 km/h (4 Bft) 97,87 %
26.10.2021 23:16 12,3 C 11,7 C 10,0 C 89 % 1023,0 hPa 0,0 l/m 0 min 0 min 0 W/m 12,9 km/h (3 Bft) 97,87 %
26.10.2021 23:18 12,3 C 11,7 C 10,0 C 89 % 1023,0 hPa 0,0 l/m 0 min 0 min 0 W/m 22,5 km/h (4 Bft) 97,87 %
26.10.2021 23:20 12,3 C 11,7 C 10,0 C 90 % 1023,0 hPa 0,0 l/m 0 min 0 min 0 W/m 19,3 km/h (3 Bft) 97,83 %
26.10.2021 23:22 12,3 C 11,7 C 10,0 C 90 % 1023,0 hPa 0,0 l/m 0 min 0 min 0 W/m 25,7 km/h (4 Bft) 95,74 %
26.10.2021 23:24 12,3 C 11,7 C 10,0 C 90 % 1023,0 hPa 0,0 l/m 0 min 0 min 0 W/m 19,3 km/h (3 Bft) 97,87 %
26.10.2021 23:26 12,3 C 11,7 C 10,0 C 90 % 1023,0 hPa 0,0 l/m 0 min 0 min 0 W/m 19,3 km/h (3 Bft) 97,87 %
26.10.2021 23:28 12,3 C 11,7 C 10,0 C 90 % 1023,1 hPa 0,0 l/m 0 min 0 min 0 W/m 16,1 km/h (3 Bft) 100,00 %
26.10.2021 23:30 12,3 C 11,7 C 10,0 C 90 % 1023,1 hPa 0,0 l/m 0 min 0 min 0 W/m 22,5 km/h (4 Bft) 100,00 %
26.10.2021 23:32 12,3 C 11,7 C 10,0 C 90 % 1023,1 hPa 0,0 l/m 0 min 0 min 0 W/m 22,5 km/h (4 Bft) 95,65 %
26.10.2021 23:34 12,3 C 11,7 C 10,0 C 90 % 1023,1 hPa 0,0 l/m 0 min 0 min 0 W/m 22,5 km/h (4 Bft) 100,00 %
26.10.2021 23:36 12,3 C 11,7 C 10,0 C 90 % 1023,1 hPa 0,0 l/m 0 min 0 min 0 W/m 29,0 km/h (5 Bft) 100,00 %
26.10.2021 23:38 12,3 C 11,7 C 10,0 C 90 % 1023,1 hPa 0,0 l/m 0 min 0 min 0 W/m 22,5 km/h (4 Bft) 97,87 %
26.10.2021 23:40 12,3 C 11,7 C 10,0 C 90 % 1023,1 hPa 0,0 l/m 0 min 0 min 0 W/m 16,1 km/h (3 Bft) 100,00 %
26.10.2021 23:42 12,3 C 11,7 C 10,0 C 90 % 1023,2 hPa 0,0 l/m 0 min 0 min 0 W/m 32,2 km/h (5 Bft) 97,87 %
26.10.2021 23:44 12,3 C 11,7 C 10,0 C 90 % 1023,1 hPa 0,0 l/m 0 min 0 min 0 W/m 19,3 km/h (3 Bft) 100,00 %
26.10.2021 23:46 12,3 C 11,7 C 10,0 C 90 % 1023,2 hPa 0,0 l/m 0 min 0 min 0 W/m 12,9 km/h (3 Bft) 97,87 %
26.10.2021 23:48 12,3 C 11,7 C 10,0 C 90 % 1023,2 hPa 0,0 l/m 0 min 0 min 0 W/m 16,1 km/h (3 Bft) 100,00 %
26.10.2021 23:50 12,3 C 11,7 C 10,0 C 90 % 1023,2 hPa 0,0 l/m 0 min 0 min 0 W/m 12,9 km/h (3 Bft) 100,00 %
26.10.2021 23:52 12,3 C 11,7 C 10,0 C 90 % 1023,2 hPa 0,0 l/m 0 min 0 min 0 W/m 6,4 km/h (2 Bft) 100,00 %
26.10.2021 23:54 12,3 C 11,7 C 10,0 C 90 % 1023,2 hPa 0,0 l/m 0 min 0 min 0 W/m 16,1 km/h (3 Bft) 100,00 %
26.10.2021 23:56 12,3 C 11,7 C 10,0 C 90 % 1023,2 hPa 0,0 l/m 0 min 0 min 0 W/m 19,3 km/h (3 Bft) 97,83 %
26.10.2021 23:58 12,3 C 11,7 C 10,0 C 90 % 1023,2 hPa 0,0 l/m 0 min 0 min 0 W/m 12,9 km/h (3 Bft) 97,87 %
_ Min-Zeit 05:34 05:28 00:00 15:18 00:08 - - - - 05:32 18:40
Minimum _ 10,4 C 9,4 C 8,9 C 76 % 1018,9 hPa - - - - 0,0 km/h (0 Bft) 89,36 %
_ Max-Zeit 16:14 14:02 12:48 06:12 23:42 00:00 11:46 00:00 14:10 14:04 00:24
Maximum _ 15,1 C 20,0 C 12,8 C 96 % 1023,2 hPa 0,0 l/m 2 min 0 min 592 W/m 45,1 km/h
S-SW (6 Bft)
100,00 %
Durchschnitt _ 12,2 C 11,9 C 10,4 C 89 % 1020,9 hPa #0,0 l/m #1:52 h #0 min. 134 W/m 13,2 km/h (3 Bft) 97,67 %
© 2021 W. Hausmann